GREAT EAST LAKE DAM: From 06/18/2022 00:00 to 08/20/2022 00:00

Date LAKE ELEVATION [FT] PRECIPITATION INCREMENT [IN] PRECIPITATION TOTAL [IN] AIR TEMPERATURE [F] RELATIVE HUMIDITY [%]
08/17/2022 22:00 573.71 0.02 -- 62.3 100.0
08/17/2022 21:00 573.70 0.02 -- 63.2 100.0
08/17/2022 20:00 573.69 0.01 -- 63.3 100.0
08/17/2022 19:00 573.69 0.01 -- 62.9 100.0
08/17/2022 18:00 573.71 0.01 -- 63.5 100.0
08/17/2022 17:00 573.71 0.00 -- 62.2 100.0
08/17/2022 16:00 573.73 0.02 -- 62.8 100.0
08/17/2022 15:00 573.71 0.04 -- 63.2 100.0
08/17/2022 14:00 573.71 0.02 -- 63.3 100.0
08/17/2022 13:00 573.70 0.00 -- 68.6 100.0
08/17/2022 12:00 573.70 0.00 -- 69.6 100.0
08/17/2022 11:00 573.70 0.00 -- 68.4 100.0
08/17/2022 10:00 573.71 0.00 -- 67.0 100.0
08/17/2022 09:00 573.71 0.00 -- 66.2 100.0
08/17/2022 08:00 573.71 0.00 -- 65.4 100.0
08/17/2022 07:00 573.70 0.00 -- 65.1 100.0
08/17/2022 06:00 573.72 0.00 -- 64.6 100.0
08/17/2022 05:00 573.70 0.00 -- 65.5 100.0
08/17/2022 04:00 573.70 0.00 -- 64.9 100.0
08/17/2022 03:00 573.71 0.00 -- 65.8 100.0
08/17/2022 02:00 573.70 0.00 -- 65.8 100.0
08/17/2022 01:00 573.71 0.00 -- 66.1 100.0
08/17/2022 00:00 573.71 0.00 -- 66.4 100.0
08/16/2022 23:00 573.71 0.00 -- 66.1 100.0
08/16/2022 22:00 573.72 0.00 -- 64.8 100.0
08/16/2022 21:00 573.70 0.00 -- 67.8 100.0
08/16/2022 20:00 573.73 0.00 -- 71.0 100.0
08/16/2022 19:00 573.71 0.00 -- 72.9 100.0
08/16/2022 18:00 573.73 0.00 -- 75.7 100.0
08/16/2022 17:00 573.72 0.00 -- 77.5 100.0
08/16/2022 16:00 573.71 0.00 -- 77.6 100.0
08/16/2022 15:00 573.73 0.00 -- 79.0 100.0
08/16/2022 14:00 573.73 0.00 -- 77.9 100.0
08/16/2022 13:00 573.73 0.00 -- 75.9 100.0
08/16/2022 12:00 573.73 0.00 -- 74.0 100.0
08/16/2022 11:00 573.73 0.00 -- 72.2 100.0
08/16/2022 10:00 573.71 0.00 -- 67.6 100.0
08/16/2022 09:00 573.74 0.00 -- 63.3 100.0
08/16/2022 08:00 573.73 0.00 -- 59.3 100.0
08/16/2022 07:00 573.73 0.00 -- 58.3 100.0
08/16/2022 06:00 573.73 0.00 -- 58.0 92.0
08/16/2022 05:00 573.74 0.00 -- 57.7 100.0
08/16/2022 04:00 573.74 0.00 -- 58.3 100.0
08/16/2022 03:00 573.74 0.00 -- 58.9 100.0
08/16/2022 02:00 573.74 0.00 -- 60.7 100.0
08/16/2022 01:00 573.75 0.00 -- 61.5 100.0
08/16/2022 00:00 573.74 0.00 0.00 61.6 100.0
08/15/2022 23:00 573.74 0.00 -- 63.0 100.0
08/15/2022 22:00 573.75 0.00 -- 66.0 100.0
08/15/2022 21:00 573.75 0.00 -- 68.2 100.0
08/15/2022 20:00 573.74 0.00 -- 71.5 100.0
08/15/2022 19:00 573.74 0.00 -- 74.4 100.0
08/15/2022 18:00 573.75 0.00 -- 77.5 100.0
08/15/2022 17:00 573.75 0.00 -- 78.9 100.0
08/15/2022 16:00 573.75 0.00 -- 77.5 100.0
08/15/2022 15:00 573.76 0.00 -- 79.1 100.0
08/15/2022 14:00 573.75 0.00 -- 75.4 100.0
08/15/2022 13:00 573.75 0.00 -- 75.3 100.0
08/15/2022 12:00 573.76 0.00 -- 74.7 100.0
08/15/2022 11:00 573.76 0.00 -- 71.6 100.0
08/15/2022 10:00 573.75 0.00 -- 67.0 100.0
08/15/2022 09:00 573.76 0.00 -- 63.0 100.0
08/15/2022 08:00 573.76 0.00 -- 58.2 93.0
08/15/2022 07:00 573.76 0.00 -- 58.0 100.0
08/15/2022 06:00 573.76 0.00 -- 57.8 100.0
08/15/2022 05:00 573.76 0.00 -- 57.7 100.0
08/15/2022 04:00 573.76 0.00 -- 58.2 100.0
08/15/2022 03:00 573.76 0.00 -- 58.9 100.0
08/15/2022 02:00 573.77 0.00 -- 59.7 100.0
08/15/2022 01:00 573.76 0.00 -- 61.5 100.0
08/15/2022 00:00 573.77 0.00 0.00 64.1 100.0
08/14/2022 23:00 573.77 0.00 -- 66.4 100.0
08/14/2022 22:00 573.77 0.00 -- 65.6 100.0
08/14/2022 21:00 573.77 0.00 -- 66.2 100.0
08/14/2022 20:00 573.77 0.00 -- 70.8 100.0
08/14/2022 19:00 573.77 0.00 -- 74.7 100.0
08/14/2022 18:00 573.77 0.00 -- 77.2 100.0
08/14/2022 17:00 573.78 0.00 -- 78.1 100.0
08/14/2022 16:00 573.78 0.00 -- 76.4 100.0
08/14/2022 15:00 573.77 0.00 -- 76.7 100.0
08/14/2022 14:00 573.78 0.00 -- 74.7 100.0
08/14/2022 13:00 573.79 0.00 -- 73.3 100.0
08/14/2022 12:00 573.78 0.00 -- 71.9 100.0
08/14/2022 11:00 573.79 0.00 -- 70.3 100.0
08/14/2022 10:00 573.78 0.00 -- 67.0 100.0
08/14/2022 09:00 573.79 0.00 -- 63.5 100.0
08/14/2022 08:00 573.79 0.00 -- 62.1 100.0
08/14/2022 07:00 573.79 0.00 -- 60.0 100.0
08/14/2022 06:00 573.79 0.00 -- 59.8 100.0
08/14/2022 05:00 573.79 0.00 -- 60.2 100.0
08/14/2022 04:00 573.80 0.00 -- 60.1 100.0
08/14/2022 03:00 573.79 0.00 -- 60.6 100.0
08/14/2022 02:00 573.79 0.00 -- 59.2 100.0
08/14/2022 01:00 573.79 0.00 -- 59.5 100.0
08/14/2022 00:00 573.80 0.00 0.00 60.5 100.0
08/13/2022 23:00 573.79 0.00 -- 63.6 100.0
08/13/2022 22:00 573.79 0.00 -- 64.7 100.0
08/13/2022 21:00 573.80 0.00 -- 67.1 100.0
08/13/2022 20:00 573.80 0.00 -- 70.3 100.0
08/13/2022 19:00 573.80 0.00 -- 71.9 100.0
08/13/2022 18:00 573.81 0.00 -- 71.6 100.0
08/13/2022 17:00 573.81 0.00 -- 73.4 100.0
08/13/2022 16:00 573.81 0.00 -- 73.4 100.0
08/13/2022 15:00 573.81 0.00 -- 71.7 100.0
08/13/2022 14:00 573.81 0.00 -- 70.4 100.0
08/13/2022 13:00 573.81 0.00 -- 68.8 100.0
08/13/2022 12:00 573.80 0.00 -- 66.6 100.0
08/13/2022 11:00 573.82 0.00 -- 64.6 100.0
08/13/2022 10:00 573.83 0.00 -- 61.5 100.0
08/13/2022 09:00 573.81 0.00 -- 59.8 100.0
08/13/2022 08:00 573.81 0.00 -- 58.8 100.0
08/13/2022 07:00 573.82 0.00 -- 58.5 100.0
08/13/2022 06:00 573.82 0.00 -- 57.5 100.0
08/13/2022 05:00 573.84 0.00 -- 59.9 100.0
08/13/2022 04:00 573.86 0.00 -- 59.9 100.0
08/13/2022 03:00 573.84 0.00 -- 59.4 100.0
08/13/2022 02:00 573.83 0.00 -- 61.0 100.0
08/13/2022 01:00 573.83 0.00 -- 62.0 100.0
08/13/2022 00:00 573.82 0.00 0.00 62.3 100.0
08/12/2022 23:00 573.84 0.00 -- 62.7 100.0
08/12/2022 22:00 573.83 0.00 -- 64.5 100.0
08/12/2022 21:00 573.83 0.00 -- 66.4 100.0
08/12/2022 20:00 573.83 0.00 -- 68.9 100.0
08/12/2022 19:00 573.84 0.00 -- 70.2 100.0
08/12/2022 18:00 573.85 0.00 -- 72.1 100.0
08/12/2022 17:00 573.83 0.00 -- 73.6 100.0
08/12/2022 16:00 573.85 0.00 -- 73.7 100.0
08/12/2022 15:00 573.85 0.00 -- 73.6 100.0
08/12/2022 14:00 573.85 0.00 -- 71.5 100.0
08/12/2022 13:00 573.85 0.00 -- 70.3 100.0
08/12/2022 12:00 573.86 0.00 -- 69.2 100.0
08/12/2022 11:00 573.85 0.00 -- 68.3 100.0
08/12/2022 10:00 573.86 0.00 -- 65.9 100.0
08/12/2022 09:00 573.86 0.00 -- 64.5 100.0
08/12/2022 08:00 573.85 0.00 -- 64.2 91.0
08/12/2022 07:00 573.86 0.00 -- 61.2 97.0
08/12/2022 06:00 573.87 0.00 -- 62.1 100.0
08/12/2022 05:00 573.87 0.00 -- 62.6 97.0
08/12/2022 04:00 573.86 0.00 -- 62.5 100.0
08/12/2022 03:00 573.86 0.00 -- 64.6 100.0
08/12/2022 02:00 573.86 0.00 -- 64.1 100.0
08/12/2022 01:00 573.86 0.00 -- 66.7 97.0
08/12/2022 00:00 573.88 0.00 0.00 67.0 80.0
08/11/2022 23:00 573.85 0.00 -- 70.3 75.0
08/11/2022 22:00 573.87 0.00 -- 69.6 78.0
08/11/2022 21:00 573.86 0.00 -- 71.2 84.0
08/11/2022 20:00 573.87 0.00 -- 73.1 86.0
08/11/2022 19:00 573.87 0.00 -- 74.6 95.0
08/11/2022 18:00 573.87 0.00 -- 77.6 83.0
08/11/2022 17:00 573.87 0.00 -- 75.4 56.0
08/11/2022 16:00 573.88 0.00 -- 74.0 73.0
08/11/2022 15:00 573.89 0.00 -- 74.3 78.0
08/11/2022 14:00 573.87 0.00 -- 73.3 70.0
08/11/2022 13:00 573.88 0.00 -- 73.9 69.0
08/11/2022 12:00 573.88 0.00 -- 71.9 70.0
08/11/2022 11:00 573.87 0.00 -- 69.7 85.0
08/11/2022 10:00 573.88 0.00 -- 67.2 87.0
08/11/2022 09:00 573.89 0.00 -- 65.6 82.0
08/11/2022 08:00 573.87 0.00 -- 63.3 89.0
08/11/2022 07:00 573.88 0.00 -- 62.0 89.0
08/11/2022 06:00 573.87 0.00 -- 62.1 94.0
08/11/2022 05:00 573.87 0.00 -- 62.1 98.0
08/11/2022 04:00 573.88 0.00 -- 62.3 100.0
08/11/2022 03:00 573.90 0.00 -- 63.0 100.0
08/11/2022 02:00 573.88 0.00 -- 63.4 100.0
08/11/2022 01:00 573.90 0.00 -- 63.0 100.0
08/11/2022 00:00 573.89 0.00 0.00 62.8 100.0
08/10/2022 23:00 573.89 0.00 -- 63.3 100.0
08/10/2022 22:00 573.89 0.00 -- 65.0 100.0
08/10/2022 21:00 573.88 0.00 -- 66.6 100.0
08/10/2022 20:00 573.89 0.00 -- 67.9 100.0
08/10/2022 19:00 573.90 0.00 -- 69.5 100.0
08/10/2022 18:00 573.89 0.00 -- 70.2 100.0
08/10/2022 17:00 573.90 0.00 -- 72.7 100.0
08/10/2022 16:00 573.90 0.00 -- 71.3 100.0
08/10/2022 15:00 573.90 0.00 -- 68.4 100.0
08/10/2022 14:00 573.90 0.01 -- 66.1 100.0
08/10/2022 13:00 573.90 0.00 -- 66.0 100.0
08/10/2022 12:00 573.90 0.00 -- 65.2 100.0
08/10/2022 11:00 573.91 0.00 -- 64.2 100.0
08/10/2022 10:00 573.91 0.00 -- 64.0 100.0
08/10/2022 09:00 573.91 0.00 -- 63.7 100.0
08/10/2022 08:00 573.90 0.00 -- 62.4 100.0
08/10/2022 07:00 573.90 0.00 -- 62.7 100.0
08/10/2022 06:00 573.90 0.00 -- 62.9 100.0
08/10/2022 05:00 573.92 0.00 -- 63.4 100.0
08/10/2022 04:00 573.92 0.00 -- 63.4 100.0
08/10/2022 03:00 573.92 0.00 -- 63.8 100.0
08/10/2022 02:00 573.90 0.00 -- 65.5 100.0
08/10/2022 01:00 573.91 0.00 -- 66.6 100.0
08/10/2022 00:00 573.91 0.00 0.01 66.8 100.0
08/09/2022 23:00 573.92 0.00 -- 68.0 100.0
08/09/2022 22:00 573.93 0.00 -- 68.2 100.0
08/09/2022 21:00 573.92 0.00 -- 69.1 100.0
08/09/2022 20:00 573.93 0.00 -- 70.9 100.0
08/09/2022 19:00 573.91 0.00 -- 74.5 100.0
08/09/2022 18:00 573.92 0.00 -- 78.2 78.0
08/09/2022 17:00 573.92 0.00 -- 86.5 63.0
08/09/2022 16:00 573.92 0.00 -- 85.4 67.0
08/09/2022 15:00 573.92 0.00 -- 81.8 62.0
08/09/2022 14:00 573.93 0.00 -- 82.3 84.0
08/09/2022 13:00 573.94 0.00 -- 82.5 88.0
08/09/2022 12:00 573.94 0.00 -- 80.4 95.0
08/09/2022 11:00 573.95 0.00 -- 79.8 100.0
08/09/2022 10:00 573.94 0.00 -- 76.3 100.0
08/09/2022 09:00 573.94 0.00 -- 74.1 100.0
08/09/2022 08:00 573.93 0.01 -- 73.0 100.0
08/09/2022 07:00 573.93 0.00 -- 73.0 100.0
08/09/2022 06:00 573.93 0.00 -- 72.8 100.0
08/09/2022 05:00 573.94 0.00 -- 72.3 100.0
08/09/2022 04:00 573.94 0.00 -- 72.3 100.0
08/09/2022 03:00 573.94 0.01 -- 71.8 100.0
08/09/2022 02:00 573.96 0.00 -- 68.2 100.0
08/09/2022 01:00 573.91 0.46 -- 69.1 100.0
08/09/2022 00:00 573.86 0.01 0.48 68.7 100.0
08/08/2022 23:00 573.91 0.00 -- 69.0 100.0
08/08/2022 22:00 573.92 0.53 -- 69.6 100.0
08/08/2022 21:00 573.85 0.00 -- 75.0 100.0
08/08/2022 20:00 573.84 0.00 -- 82.1 100.0
08/08/2022 19:00 573.84 0.00 -- 87.7 100.0
08/08/2022 18:00 573.85 0.00 -- 91.7 100.0
08/08/2022 17:00 573.85 0.00 -- 89.8 100.0
08/08/2022 16:00 573.85 0.00 -- 89.6 100.0
08/08/2022 15:00 573.86 0.00 -- 88.9 100.0
08/08/2022 14:00 573.87 0.00 -- 87.7 100.0
08/08/2022 13:00 573.85 0.00 -- 86.6 100.0
08/08/2022 12:00 573.87 0.00 -- 84.9 100.0
08/08/2022 11:00 573.87 0.00 -- 82.8 100.0
08/08/2022 10:00 573.85 0.00 -- 80.3 100.0
08/08/2022 09:00 573.86 0.00 -- 76.8 100.0
08/08/2022 08:00 573.86 0.00 -- 71.7 100.0
08/08/2022 07:00 573.86 0.00 -- 71.2 100.0
08/08/2022 06:00 573.86 0.00 -- 71.3 100.0
08/08/2022 05:00 573.85 0.00 -- 71.9 100.0
08/08/2022 04:00 573.86 0.00 -- 73.0 100.0
08/08/2022 03:00 573.86 0.00 -- 74.0 100.0
08/08/2022 02:00 573.85 0.00 -- 74.7 100.0
08/08/2022 01:00 573.86 0.00 -- 75.7 100.0
08/08/2022 00:00 573.86 0.00 0.54 77.4 100.0
08/07/2022 23:00 573.86 0.00 -- 78.9 100.0
08/07/2022 22:00 573.86 0.00 -- 77.5 100.0
08/07/2022 21:00 573.88 0.00 -- 79.8 100.0
08/07/2022 20:00 573.86 0.00 -- 83.6 100.0
08/07/2022 19:00 573.85 0.00 -- 85.9 100.0
08/07/2022 18:00 573.87 0.00 -- 87.1 100.0
08/07/2022 17:00 573.88 0.00 -- 89.1 100.0
08/07/2022 16:00 573.89 0.00 -- 87.2 100.0
08/07/2022 15:00 573.85 0.00 -- 87.8 86.0
08/07/2022 14:00 573.84 0.00 -- 86.2 69.0
08/07/2022 13:00 573.85 0.00 -- 84.5 52.0
08/07/2022 12:00 573.88 0.00 -- 83.3 54.0
08/07/2022 11:00 573.88 0.00 -- 81.0 58.0
08/07/2022 10:00 573.90 0.00 -- 79.8 63.0
08/07/2022 09:00 573.88 0.00 -- 76.2 62.0
08/07/2022 08:00 573.91 0.00 -- 73.0 63.0
08/07/2022 07:00 573.89 0.00 -- 72.2 68.0
08/07/2022 06:00 573.89 0.00 -- 72.2 71.0
08/07/2022 05:00 573.88 0.00 -- 72.4 76.0
08/07/2022 04:00 573.90 0.00 -- 72.8 79.0
08/07/2022 03:00 573.89 0.00 -- 72.8 84.0
08/07/2022 02:00 573.90 0.00 -- 73.7 87.0
08/07/2022 01:00 573.89 0.00 -- 72.8 88.0
08/07/2022 00:00 573.90 0.00 0.00 73.0 92.0
08/06/2022 23:00 573.89 0.01 -- 72.5 91.0
08/06/2022 22:00 573.89 0.00 -- 73.1 84.0
08/06/2022 21:00 573.89 0.00 -- 73.7 81.0
08/06/2022 20:00 573.91 0.28 -- 74.0 75.0
08/06/2022 19:00 573.88 0.00 -- 77.2 78.0
08/06/2022 18:00 573.88 0.05 -- 77.1 86.0
08/06/2022 17:00 573.89 0.04 -- 77.6 100.0
08/06/2022 16:00 573.85 0.08 -- 81.5 92.0
08/06/2022 15:00 573.85 0.00 -- 85.3 100.0
08/06/2022 14:00 573.85 0.00 -- 84.5 100.0
08/06/2022 13:00 573.86 0.00 -- 84.1 100.0
08/06/2022 12:00 573.86 0.00 -- 81.6 100.0
08/06/2022 11:00 573.86 0.00 -- 79.1 100.0
08/06/2022 10:00 573.86 0.00 -- 76.1 100.0
08/06/2022 09:00 573.86 0.00 -- 73.7 100.0
08/06/2022 08:00 573.85 0.00 -- 71.9 100.0
08/06/2022 07:00 573.86 0.00 -- 71.0 100.0
08/06/2022 06:00 573.86 0.00 -- 71.4 100.0
08/06/2022 05:00 573.86 0.00 -- 72.1 100.0
08/06/2022 04:00 573.86 0.00 -- 73.1 100.0
08/06/2022 03:00 573.87 0.00 -- 72.9 100.0
08/06/2022 02:00 573.86 0.00 -- 73.2 100.0
08/06/2022 01:00 573.86 0.00 -- 73.9 100.0
08/06/2022 00:00 573.86 0.00 0.46 75.5 100.0
08/05/2022 23:00 573.86 0.00 -- 75.9 100.0
08/05/2022 22:00 573.85 0.00 -- 78.1 100.0
08/05/2022 21:00 573.86 0.00 -- 79.8 100.0
08/05/2022 20:00 573.87 0.00 -- 81.5 100.0
08/05/2022 19:00 573.86 0.00 -- 85.1 100.0
08/05/2022 18:00 573.87 0.00 -- 88.0 100.0
08/05/2022 17:00 573.87 0.00 -- 87.2 100.0
08/05/2022 16:00 573.88 0.00 -- 85.8 100.0
08/05/2022 15:00 573.88 0.00 -- 83.8 100.0
08/05/2022 14:00 573.88 0.00 -- 81.4 100.0
08/05/2022 13:00 573.87 0.00 -- 79.6 100.0
08/05/2022 12:00 573.86 0.00 -- 79.0 100.0
08/05/2022 11:00 573.88 0.00 -- 76.4 100.0
08/05/2022 10:00 573.88 0.00 -- 75.1 100.0
08/05/2022 09:00 573.87 0.00 -- 74.0 100.0
08/05/2022 08:00 573.88 0.00 -- 74.0 100.0
08/05/2022 07:00 573.86 0.00 -- 73.5 100.0
08/05/2022 06:00 573.86 0.00 -- 73.9 100.0
08/05/2022 05:00 573.86 0.00 -- 73.6 100.0
08/05/2022 04:00 573.87 0.00 -- 72.6 100.0
08/05/2022 03:00 573.88 0.00 -- 73.2 100.0
08/05/2022 02:00 573.87 0.00 -- 73.4 100.0
08/05/2022 01:00 573.90 0.00 -- 74.0 100.0
08/05/2022 00:00 573.90 0.00 0.00 74.2 100.0
08/04/2022 23:00 573.88 0.00 -- 75.8 100.0
08/04/2022 22:00 573.81 0.00 -- 79.8 100.0
08/04/2022 21:00 573.89 0.00 -- 80.5 100.0
08/04/2022 20:00 573.89 0.00 -- 86.0 100.0
08/04/2022 19:00 573.89 0.00 -- 88.8 100.0
08/04/2022 18:00 573.88 0.00 -- 94.0 100.0
08/04/2022 17:00 573.89 0.00 -- 93.4 100.0
08/04/2022 16:00 573.89 0.00 -- 91.1 100.0
08/04/2022 15:00 573.89 0.00 -- 91.1 100.0
08/04/2022 14:00 573.89 0.00 -- 90.2 100.0
08/04/2022 13:00 573.89 0.00 -- 88.4 100.0
08/04/2022 12:00 573.89 0.00 -- 84.8 100.0
08/04/2022 11:00 573.89 0.00 -- 80.1 100.0
08/04/2022 10:00 573.89 0.00 -- 74.5 100.0
08/04/2022 09:00 573.90 0.00 -- 69.1 100.0
08/04/2022 08:00 573.90 0.00 -- 65.4 100.0
08/04/2022 07:00 573.91 0.00 -- 64.1 100.0
08/04/2022 06:00 573.90 0.00 -- 64.2 100.0
08/04/2022 05:00 573.90 0.00 -- 64.8 100.0
08/04/2022 04:00 573.90 0.00 -- 65.8 100.0
08/04/2022 03:00 573.90 0.00 -- 66.1 100.0
08/04/2022 02:00 573.90 0.00 -- 67.3 100.0
08/04/2022 01:00 573.90 0.00 -- 68.2 100.0
08/04/2022 00:00 573.90 0.00 0.00 69.3 100.0
08/03/2022 23:00 573.90 0.00 -- 70.7 100.0
08/03/2022 22:00 573.89 0.00 -- 71.7 100.0
08/03/2022 21:00 573.90 0.00 -- 74.0 100.0
08/03/2022 20:00 573.91 0.00 -- 76.9 100.0
08/03/2022 19:00 573.90 0.00 -- 79.7 100.0
08/03/2022 18:00 573.91 0.00 -- 83.5 100.0
08/03/2022 17:00 573.91 0.00 -- 84.0 100.0
08/03/2022 16:00 573.92 0.00 -- 83.0 100.0
08/03/2022 15:00 573.91 0.00 -- 81.6 100.0
08/03/2022 14:00 573.92 0.00 -- 80.7 100.0
08/03/2022 13:00 573.91 0.00 -- 78.8 100.0
08/03/2022 12:00 573.91 0.00 -- 76.1 100.0
08/03/2022 11:00 573.92 0.00 -- 74.1 100.0
08/03/2022 10:00 573.92 0.00 -- 70.4 100.0
08/03/2022 09:00 573.92 0.00 -- 68.7 100.0
08/03/2022 08:00 573.93 0.00 -- 66.7 100.0
08/03/2022 07:00 573.92 0.00 -- 67.1 100.0
08/03/2022 06:00 573.92 0.00 -- 68.6 100.0
08/03/2022 05:00 573.93 0.00 -- 69.0 100.0
08/03/2022 04:00 573.93 0.00 -- 68.7 100.0
08/03/2022 03:00 573.93 0.00 -- 69.2 100.0
08/03/2022 02:00 573.93 0.00 -- 70.0 100.0
08/03/2022 01:00 573.93 0.00 -- 72.6 100.0
08/03/2022 00:00 573.93 0.00 0.00 75.9 100.0
08/02/2022 23:00 573.93 0.00 -- 76.4 100.0
08/02/2022 22:00 573.94 0.00 -- 77.9 100.0
08/02/2022 21:00 573.94 0.00 -- 78.4 100.0
08/02/2022 20:00 573.94 0.00 -- 82.0 100.0
08/02/2022 19:00 573.93 0.00 -- 83.0 100.0
08/02/2022 18:00 573.94 0.00 -- 84.3 100.0
08/02/2022 17:00 573.94 0.00 -- 84.7 100.0
08/02/2022 16:00 573.95 0.00 -- 84.3 100.0
08/02/2022 15:00 573.96 0.00 -- 84.4 100.0
08/02/2022 14:00 573.94 0.00 -- 84.2 100.0
08/02/2022 13:00 573.94 0.00 -- 84.1 100.0
08/02/2022 12:00 573.96 0.00 -- 80.9 100.0
08/02/2022 11:00 573.94 0.00 -- 77.8 100.0
08/02/2022 10:00 573.94 0.00 -- 72.2 100.0
08/02/2022 09:00 573.95 0.00 -- 67.3 100.0
08/02/2022 08:00 573.94 0.00 -- 64.4 100.0
08/02/2022 07:00 573.97 0.00 -- 63.7 100.0
08/02/2022 06:00 573.95 0.00 -- 63.8 100.0
08/02/2022 05:00 573.95 0.00 -- 64.7 100.0
08/02/2022 04:00 573.94 0.00 -- 64.4 100.0
08/02/2022 03:00 573.95 0.00 -- 64.9 100.0
08/02/2022 02:00 573.96 0.00 -- 65.9 100.0
08/02/2022 01:00 573.96 0.00 -- 66.7 100.0
08/02/2022 00:00 573.95 0.00 0.00 68.4 100.0
08/01/2022 23:00 573.95 0.00 -- 70.0 100.0
08/01/2022 22:00 573.96 0.00 -- 71.8 100.0
08/01/2022 21:00 573.95 0.00 -- 74.5 100.0
08/01/2022 20:00 573.96 0.00 -- 77.4 100.0
08/01/2022 19:00 573.96 0.00 -- 79.0 100.0
08/01/2022 18:00 573.96 0.00 -- 81.3 100.0
08/01/2022 17:00 573.95 0.00 -- 86.7 100.0
08/01/2022 16:00 573.96 0.00 -- 83.3 100.0
08/01/2022 15:00 573.98 0.00 -- 84.4 100.0
08/01/2022 14:00 573.97 0.00 -- 81.4 100.0
08/01/2022 13:00 573.96 0.00 -- 80.4 100.0
08/01/2022 12:00 573.97 0.00 -- 78.5 100.0
08/01/2022 11:00 573.97 0.00 -- 76.0 100.0
08/01/2022 10:00 573.96 0.00 -- 73.8 100.0
08/01/2022 09:00 573.96 0.00 -- 71.1 100.0
08/01/2022 08:00 573.98 0.00 -- 65.7 100.0
08/01/2022 07:00 573.96 0.00 -- 65.2 100.0
08/01/2022 06:00 573.97 0.00 -- 65.8 100.0
08/01/2022 05:00 573.97 0.00 -- 65.2 100.0
08/01/2022 04:00 573.97 0.00 -- 66.3 100.0
08/01/2022 03:00 573.98 0.00 -- 68.0 100.0
08/01/2022 02:00 573.97 0.00 -- 68.2 100.0
08/01/2022 01:00 573.98 0.00 -- 68.2 100.0
08/01/2022 00:00 573.98 0.00 0.00 68.9 100.0
07/31/2022 23:00 573.98 0.00 -- 70.8 100.0
07/31/2022 22:00 573.98 0.00 -- 71.6 100.0
07/31/2022 21:00 573.98 0.00 -- 73.2 100.0
07/31/2022 20:00 573.98 0.00 -- 76.9 100.0
07/31/2022 19:00 573.98 0.00 -- 80.3 100.0
07/31/2022 18:00 573.99 0.00 -- 80.9 100.0
07/31/2022 17:00 573.98 0.00 -- 80.6 100.0
07/31/2022 16:00 573.99 0.00 -- 80.4 100.0
07/31/2022 15:00 573.98 0.00 -- 78.3 100.0
07/31/2022 14:00 573.99 0.00 -- 77.1 100.0
07/31/2022 13:00 573.99 0.00 -- 75.3 100.0
07/31/2022 12:00 574.00 0.00 -- 73.9 100.0
07/31/2022 11:00 574.00 0.00 -- 72.4 100.0
07/31/2022 10:00 573.99 0.00 -- 70.0 100.0
07/31/2022 09:00 574.00 0.00 -- 67.3 100.0
07/31/2022 08:00 573.99 0.00 -- 62.7 100.0
07/31/2022 07:00 574.00 0.00 -- 60.8 100.0
07/31/2022 06:00 573.99 0.00 -- 61.6 100.0
07/31/2022 05:00 573.98 0.00 -- 61.6 100.0
07/31/2022 04:00 573.97 0.00 -- 63.4 100.0
07/31/2022 03:00 574.02 0.00 -- 62.6 100.0
07/31/2022 02:00 573.99 0.00 -- 63.7 100.0
07/31/2022 01:00 574.00 0.00 -- 64.8 100.0
07/31/2022 00:00 574.00 0.00 0.00 66.1 100.0
07/30/2022 23:00 574.01 0.00 -- 68.8 100.0
07/30/2022 22:00 574.00 0.00 -- 70.3 100.0
07/30/2022 21:00 574.03 0.00 -- 72.3 100.0
07/30/2022 20:00 574.01 0.00 -- 73.5 100.0
07/30/2022 19:00 574.03 0.00 -- 74.5 100.0
07/30/2022 18:00 574.02 0.00 -- 75.8 100.0
07/30/2022 17:00 574.01 0.00 -- 75.8 100.0
07/30/2022 16:00 574.04 0.00 -- 76.4 100.0
07/30/2022 15:00 573.98 0.00 -- 75.3 100.0
07/30/2022 14:00 574.04 0.00 -- 75.1 100.0
07/30/2022 13:00 574.02 0.00 -- 74.8 100.0
07/30/2022 12:00 574.01 0.00 -- 73.8 100.0
07/30/2022 11:00 574.02 0.00 -- 72.9 100.0
07/30/2022 10:00 574.00 0.00 -- 71.9 100.0
07/30/2022 09:00 574.02 0.00 -- 69.3 100.0
07/30/2022 08:00 574.04 0.00 -- 66.0 100.0
07/30/2022 07:00 574.04 0.00 -- 66.5 100.0
07/30/2022 06:00 574.02 0.00 -- 68.7 100.0
07/30/2022 05:00 574.06 0.00 -- 69.5 100.0
07/30/2022 04:00 574.03 0.00 -- 69.2 100.0
07/30/2022 03:00 574.04 0.00 -- 67.4 100.0
07/30/2022 02:00 574.04 0.00 -- 67.1 100.0
07/30/2022 01:00 574.05 0.00 -- 66.8 100.0
07/30/2022 00:00 574.03 0.00 0.00 66.6 100.0
07/29/2022 23:00 574.03 0.00 -- 69.2 100.0
07/29/2022 22:00 574.03 0.00 -- 71.5 100.0
07/29/2022 21:00 574.03 0.00 -- 72.5 100.0
07/29/2022 20:00 574.05 0.00 -- 75.0 100.0
07/29/2022 19:00 574.05 0.00 -- 78.3 100.0
07/29/2022 18:00 574.06 0.00 -- 82.8 100.0
07/29/2022 17:00 574.07 0.00 -- 80.9 100.0
07/29/2022 16:00 574.03 0.00 -- 81.5 100.0
07/29/2022 15:00 574.03 0.00 -- 80.3 100.0
07/29/2022 14:00 574.07 0.00 -- 79.9 100.0
07/29/2022 13:00 574.08 0.00 -- 78.7 100.0
07/29/2022 12:00 574.04 0.00 -- 76.7 100.0
07/29/2022 11:00 574.04 0.00 -- 75.5 100.0
07/29/2022 10:00 574.04 0.00 -- 73.4 100.0
07/29/2022 09:00 574.04 0.00 -- 70.8 100.0
07/29/2022 08:00 574.05 0.00 -- 69.0 100.0
07/29/2022 07:00 574.07 0.00 -- 68.3 100.0
07/29/2022 06:00 574.06 0.00 -- 66.9 100.0
07/29/2022 05:00 574.07 0.00 -- 68.9 100.0
07/29/2022 04:00 574.08 0.00 -- 69.9 100.0
07/29/2022 03:00 574.05 0.01 -- 69.6 100.0
07/29/2022 02:00 574.05 0.00 -- 70.5 100.0
07/29/2022 01:00 574.04 0.00 -- 70.1 100.0
07/29/2022 00:00 574.05 0.00 0.01 71.1 100.0
07/28/2022 23:00 574.04 0.00 -- 70.8 100.0
07/28/2022 22:00 573.99 0.34 -- 70.5 100.0
07/28/2022 21:00 573.90 1.17 -- 71.1 100.0
07/28/2022 20:00 573.82 0.01 -- 74.7 100.0
07/28/2022 19:00 573.85 0.01 -- 75.4 100.0
07/28/2022 18:00 573.85 0.00 -- 81.4 100.0
07/28/2022 17:00 573.84 0.00 -- 82.7 100.0
07/28/2022 16:00 573.85 0.00 -- 83.9 100.0
07/28/2022 15:00 573.88 0.00 -- 82.2 100.0
07/28/2022 14:00 573.87 0.00 -- 83.0 100.0
07/28/2022 13:00 573.88 0.00 -- 80.1 100.0
07/28/2022 12:00 573.86 0.00 -- 79.1 100.0
07/28/2022 11:00 573.88 0.00 -- 77.1 100.0
07/28/2022 10:00 573.89 0.00 -- 71.2 100.0
07/28/2022 09:00 573.88 0.00 -- 66.9 100.0
07/28/2022 08:00 573.86 0.00 -- 62.1 100.0
07/28/2022 07:00 573.87 0.00 -- 59.9 100.0
07/28/2022 06:00 573.86 0.00 -- 59.7 100.0
07/28/2022 05:00 573.87 0.00 -- 60.2 100.0
07/28/2022 04:00 573.88 0.00 -- 61.2 100.0
07/28/2022 03:00 573.87 0.00 -- 61.6 100.0
07/28/2022 02:00 573.87 0.00 -- 63.8 100.0
07/28/2022 01:00 573.88 0.00 -- 65.3 100.0
07/28/2022 00:00 573.88 0.00 1.53 65.9 100.0
07/27/2022 23:00 573.88 0.00 -- 69.1 100.0
07/27/2022 22:00 573.87 0.00 -- 70.4 100.0
07/27/2022 21:00 573.88 0.00 -- 72.5 100.0
07/27/2022 20:00 573.87 0.00 -- 74.9 100.0
07/27/2022 19:00 573.89 0.00 -- 78.0 100.0
07/27/2022 18:00 573.89 0.00 -- 79.5 100.0
07/27/2022 17:00 573.89 0.00 -- 80.0 100.0
07/27/2022 16:00 573.89 0.00 -- 79.3 100.0
07/27/2022 15:00 573.89 0.00 -- 78.3 100.0
07/27/2022 14:00 573.90 0.00 -- 76.6 100.0
07/27/2022 13:00 573.90 0.00 -- 77.2 100.0
07/27/2022 12:00 573.91 0.00 -- 74.2 100.0
07/27/2022 11:00 573.90 0.00 -- 71.8 100.0
07/27/2022 10:00 573.90 0.00 -- 68.4 100.0
07/27/2022 09:00 573.90 0.00 -- 65.6 100.0
07/27/2022 08:00 573.90 0.00 -- 64.4 100.0
07/27/2022 07:00 573.90 0.00 -- 63.6 100.0
07/27/2022 06:00 573.90 0.00 -- 60.9 100.0
07/27/2022 05:00 573.90 0.00 -- 61.9 100.0
07/27/2022 04:00 573.91 0.00 -- 62.0 100.0
07/27/2022 03:00 573.90 0.00 -- 63.0 100.0
07/27/2022 02:00 573.90 0.00 -- 63.5 100.0
07/27/2022 01:00 573.90 0.00 -- 64.4 100.0
07/27/2022 00:00 573.91 0.00 0.00 65.2 100.0
07/26/2022 23:00 573.90 0.00 -- 65.6 100.0
07/26/2022 22:00 573.91 0.00 -- 67.9 100.0
07/26/2022 21:00 573.91 0.00 -- 71.2 100.0
07/26/2022 20:00 573.91 0.00 -- 74.8 100.0
07/26/2022 19:00 573.91 0.01 -- 76.3 100.0
07/26/2022 18:00 573.92 0.00 -- 77.2 100.0
07/26/2022 17:00 573.92 0.00 -- 77.7 100.0
07/26/2022 16:00 573.92 0.00 -- 76.3 100.0
07/26/2022 15:00 573.91 0.00 -- 75.2 100.0
07/26/2022 14:00 573.92 0.00 -- 74.7 100.0
07/26/2022 13:00 573.93 0.00 -- 73.9 100.0
07/26/2022 12:00 573.92 0.00 -- 72.4 100.0
07/26/2022 11:00 573.92 0.00 -- 71.4 100.0
07/26/2022 10:00 573.93 0.00 -- 69.1 100.0
07/26/2022 09:00 573.92 0.00 -- 66.5 100.0
07/26/2022 08:00 573.92 0.00 -- 61.5 100.0
07/26/2022 07:00 573.92 0.00 -- 59.5 100.0
07/26/2022 06:00 573.92 0.00 -- 60.4 100.0
07/26/2022 05:00 573.93 0.00 -- 62.3 100.0
07/26/2022 04:00 573.93 0.00 -- 63.2 100.0
07/26/2022 03:00 573.94 0.00 -- 65.3 100.0
07/26/2022 02:00 573.93 0.00 -- 67.2 100.0
07/26/2022 01:00 573.92 0.00 -- 68.4 100.0
07/26/2022 00:00 573.94 0.00 0.01 71.7 100.0
07/25/2022 23:00 573.94 0.00 -- 70.0 100.0
07/25/2022 22:00 573.93 0.00 -- 71.1 100.0
07/25/2022 21:00 573.93 0.00 -- 72.8 100.0
07/25/2022 20:00 573.94 0.00 -- 75.0 100.0
07/25/2022 19:00 573.93 0.00 -- 77.2 100.0
07/25/2022 18:00 573.92 0.00 -- 77.5 100.0
07/25/2022 17:00 573.95 0.00 -- 82.4 100.0
07/25/2022 16:00 573.93 0.00 -- 77.3 100.0
07/25/2022 15:00 573.93 0.00 -- 75.0 100.0
07/25/2022 14:00 573.90 0.00 -- 74.6 100.0
07/25/2022 13:00 573.98 0.00 -- 72.5 100.0
07/25/2022 12:00 573.96 0.01 -- 71.3 100.0
07/25/2022 11:00 573.93 0.09 -- 70.1 100.0
07/25/2022 10:00 573.96 0.01 -- 72.7 100.0
07/25/2022 09:00 573.92 0.00 -- 75.5 100.0
07/25/2022 08:00 573.93 0.00 -- 73.7 100.0
07/25/2022 07:00 573.93 0.00 -- 73.0 100.0
07/25/2022 06:00 573.91 0.00 -- 74.0 100.0
07/25/2022 05:00 573.89 0.00 -- 74.1 100.0
07/25/2022 04:00 573.91 0.00 -- 78.7 100.0
07/25/2022 03:00 573.94 0.00 -- 78.3 100.0
07/25/2022 02:00 573.93 0.00 -- 79.6 100.0
07/25/2022 01:00 573.90 0.00 -- 78.8 100.0
07/25/2022 00:00 573.94 0.00 0.11 82.8 100.0
07/24/2022 23:00 573.92 0.00 -- 85.4 100.0
07/24/2022 22:00 573.93 0.00 -- 85.4 100.0
07/24/2022 21:00 573.95 0.00 -- 86.2 100.0
07/24/2022 20:00 573.93 0.00 -- 88.6 100.0
07/24/2022 19:00 573.97 0.00 -- 90.3 100.0
07/24/2022 18:00 573.96 0.00 -- 92.6 100.0
07/24/2022 17:00 573.96 0.00 -- 93.2 100.0
07/24/2022 16:00 573.95 0.00 -- 93.3 100.0
07/24/2022 15:00 573.96 0.00 -- 91.1 100.0
07/24/2022 14:00 573.96 0.00 -- 91.5 100.0
07/24/2022 13:00 573.95 0.00 -- 88.3 100.0
07/24/2022 12:00 573.97 0.00 -- 85.0 100.0
07/24/2022 11:00 573.96 0.00 -- 82.3 100.0
07/24/2022 10:00 573.95 0.00 -- 78.7 100.0
07/24/2022 09:00 573.97 0.00 -- 73.3 100.0
07/24/2022 08:00 573.98 0.00 -- 69.7 100.0
07/24/2022 07:00 573.98 0.00 -- 68.2 100.0
07/24/2022 06:00 573.94 0.00 -- 68.9 100.0
07/24/2022 05:00 573.97 0.00 -- 69.4 100.0
07/24/2022 04:00 573.96 0.00 -- 71.1 100.0
07/24/2022 03:00 573.95 0.00 -- 71.9 100.0
07/24/2022 02:00 573.97 0.00 -- 73.8 100.0
07/24/2022 01:00 573.97 0.00 -- 75.4 100.0
07/24/2022 00:00 573.97 0.00 0.00 76.4 100.0
07/23/2022 23:00 573.97 0.00 -- 75.7 100.0
07/23/2022 22:00 573.96 0.00 -- 79.0 100.0
07/23/2022 21:00 573.97 0.00 -- 82.2 100.0
07/23/2022 20:00 573.97 0.00 -- 85.6 100.0
07/23/2022 19:00 573.98 0.00 -- 88.5 100.0
07/23/2022 18:00 573.97 0.00 -- 92.1 100.0
07/23/2022 17:00 573.98 0.00 -- 91.5 100.0
07/23/2022 16:00 573.99 0.00 -- 89.3 100.0
07/23/2022 15:00 574.00 0.00 -- 87.6 100.0
07/23/2022 14:00 573.97 0.00 -- 86.9 100.0
07/23/2022 13:00 574.00 0.00 -- 83.8 100.0
07/23/2022 12:00 573.99 0.00 -- 82.2 100.0
07/23/2022 11:00 573.99 0.00 -- 80.0 100.0
07/23/2022 10:00 573.99 0.00 -- 77.6 100.0
07/23/2022 09:00 573.99 0.00 -- 74.0 100.0
07/23/2022 08:00 573.99 0.00 -- 71.1 100.0
07/23/2022 07:00 573.99 0.00 -- 68.8 100.0
07/23/2022 06:00 574.00 0.00 -- 68.3 100.0
07/23/2022 05:00 573.99 0.00 -- 68.5 100.0
07/23/2022 04:00 573.98 0.00 -- 68.1 100.0
07/23/2022 03:00 573.99 0.00 -- 67.6 100.0
07/23/2022 02:00 573.99 0.00 -- 68.4 100.0
07/23/2022 01:00 574.00 0.00 -- 68.8 100.0
07/23/2022 00:00 573.99 0.00 0.00 69.8 100.0
07/22/2022 23:00 574.00 0.00 -- 71.1 100.0
07/22/2022 22:00 574.00 0.00 -- 73.7 100.0
07/22/2022 21:00 574.00 0.00 -- 77.1 100.0
07/22/2022 20:00 573.99 0.00 -- 81.4 100.0
07/22/2022 19:00 574.00 0.00 -- 84.1 100.0
07/22/2022 18:00 574.00 0.00 -- 86.9 100.0
07/22/2022 17:00 574.00 0.00 -- 85.6 100.0
07/22/2022 16:00 574.02 0.00 -- 86.3 100.0
07/22/2022 15:00 573.99 0.00 -- 85.0 100.0
07/22/2022 14:00 573.99 0.00 -- 83.3 100.0
07/22/2022 13:00 574.00 0.00 -- 81.7 100.0
07/22/2022 12:00 574.01 0.00 -- 79.7 100.0
07/22/2022 11:00 574.00 0.00 -- 77.2 100.0
07/22/2022 10:00 574.01 0.00 -- 75.4 100.0
07/22/2022 09:00 574.02 0.00 -- 73.0 100.0
07/22/2022 08:00 574.02 0.00 -- 69.0 100.0
07/22/2022 07:00 574.02 0.00 -- 67.7 100.0
07/22/2022 06:00 574.00 0.00 -- 69.6 100.0
07/22/2022 05:00 574.02 0.00 -- 70.6 100.0
07/22/2022 04:00 574.03 0.00 -- 70.4 100.0
07/22/2022 03:00 574.03 0.00 -- 72.7 100.0
07/22/2022 02:00 574.02 0.00 -- 73.9 100.0
07/22/2022 01:00 574.02 0.00 -- 73.7 100.0
07/22/2022 00:00 574.01 0.00 0.00 72.4 100.0
07/21/2022 23:00 574.01 0.00 -- 74.3 100.0
07/21/2022 22:00 573.99 0.00 -- 76.2 100.0
07/21/2022 21:00 574.01 0.00 -- 76.6 100.0
07/21/2022 20:00 573.98 0.00 -- 76.7 100.0
07/21/2022 19:00 574.01 0.00 -- 78.4 100.0
07/21/2022 18:00 574.06 0.00 -- 84.3 100.0
07/21/2022 17:00 574.02 0.00 -- 85.4 100.0
07/21/2022 16:00 574.00 0.00 -- 88.1 100.0
07/21/2022 15:00 574.05 0.00 -- 88.5 100.0
07/21/2022 14:00 574.03 0.00 -- 88.9 100.0
07/21/2022 13:00 574.01 0.00 -- 86.3 100.0
07/21/2022 12:00 574.05 0.00 -- 85.6 100.0
07/21/2022 11:00 574.03 0.00 -- 82.5 100.0
07/21/2022 10:00 574.04 0.00 -- 78.0 100.0
07/21/2022 09:00 574.04 0.00 -- 75.0 100.0
07/21/2022 08:00 574.03 0.00 -- 71.2 100.0
07/21/2022 07:00 574.02 0.00 -- 69.7 100.0
07/21/2022 06:00 574.03 0.00 -- 70.0 100.0
07/21/2022 05:00 574.04 0.00 -- 70.7 100.0
07/21/2022 04:00 574.04 0.00 -- 71.3 100.0
07/21/2022 03:00 574.03 0.00 -- 72.7 100.0
07/21/2022 02:00 574.04 0.00 -- 74.8 100.0
07/21/2022 01:00 574.04 0.00 -- 76.0 100.0
07/21/2022 00:00 574.04 0.00 0.00 76.6 100.0
07/20/2022 23:00 574.02 0.00 -- 78.0 100.0
07/20/2022 22:00 574.04 0.00 -- 78.0 100.0
07/20/2022 21:00 574.04 0.00 -- 82.4 100.0
07/20/2022 20:00 574.04 0.00 -- 85.2 100.0
07/20/2022 19:00 574.03 0.00 -- 87.6 100.0
07/20/2022 18:00 574.04 0.00 -- 90.1 100.0
07/20/2022 17:00 574.04 0.00 -- 89.7 100.0
07/20/2022 16:00 574.05 0.00 -- 88.6 100.0
07/20/2022 15:00 574.04 0.00 -- 86.1 100.0
07/20/2022 14:00 574.08 0.00 -- 84.8 100.0
07/20/2022 13:00 574.05 0.00 -- 82.9 100.0
07/20/2022 12:00 574.06 0.00 -- 81.0 100.0
07/20/2022 11:00 574.04 0.00 -- 78.9 100.0
07/20/2022 10:00 574.05 0.00 -- 77.3 100.0
07/20/2022 09:00 574.04 0.00 -- 74.1 100.0
07/20/2022 08:00 574.06 0.00 -- 67.7 100.0
07/20/2022 07:00 574.06 0.00 -- 66.4 100.0
07/20/2022 06:00 574.06 0.00 -- 66.6 100.0
07/20/2022 05:00 574.06 0.00 -- 67.2 100.0
07/20/2022 04:00 574.06 0.00 -- 67.4 100.0
07/20/2022 03:00 574.06 0.00 -- 66.8 100.0
07/20/2022 02:00 574.07 0.00 -- 67.7 100.0
07/20/2022 01:00 574.06 0.00 -- 68.7 100.0
07/20/2022 00:00 574.06 0.00 0.00 69.5 100.0
07/19/2022 23:00 574.06 0.00 -- 71.2 100.0
07/19/2022 22:00 574.08 0.00 -- 73.2 100.0
07/19/2022 21:00 574.07 0.00 -- 76.3 100.0
07/19/2022 20:00 574.06 0.00 -- 78.8 100.0
07/19/2022 19:00 574.09 0.00 -- 83.2 100.0
07/19/2022 18:00 574.08 0.00 -- 85.7 100.0
07/19/2022 17:00 574.02 0.00 -- 86.3 100.0
07/19/2022 16:00 574.07 0.00 -- 84.9 100.0
07/19/2022 15:00 574.05 0.00 -- 84.9 100.0
07/19/2022 14:00 574.12 0.00 -- 82.0 100.0
07/19/2022 13:00 574.09 0.00 -- 79.2 100.0
07/19/2022 12:00 574.10 0.00 -- 77.3 100.0
07/19/2022 11:00 574.09 0.00 -- 76.2 100.0
07/19/2022 10:00 574.07 0.00 -- 74.3 100.0
07/19/2022 09:00 574.09 0.00 -- 72.7 100.0
07/19/2022 08:00 574.11 0.00 -- 71.9 100.0
07/19/2022 07:00 574.08 0.00 -- 70.1 100.0
07/19/2022 06:00 574.10 0.00 -- 70.1 100.0
07/19/2022 05:00 574.07 0.00 -- 71.1 100.0
07/19/2022 04:00 574.08 0.00 -- 71.7 100.0
07/19/2022 03:00 574.06 0.01 -- 71.9 100.0
07/19/2022 02:00 574.08 0.23 -- 72.6 100.0
07/19/2022 01:00 574.05 0.10 -- 72.6 100.0
07/19/2022 00:00 574.08 0.02 0.34 72.5 100.0
07/18/2022 23:00 574.05 0.01 -- 72.6 100.0
07/18/2022 22:00 574.07 0.01 -- 72.5 100.0
07/18/2022 21:00 574.05 0.00 -- 72.3 100.0
07/18/2022 20:00 574.05 0.24 -- 71.3 100.0
07/18/2022 19:00 573.99 0.04 -- 72.5 100.0
07/18/2022 18:00 574.03 0.11 -- 72.8 100.0
07/18/2022 17:00 574.04 0.04 -- 73.7 100.0
07/18/2022 16:00 574.03 0.02 -- 74.2 100.0
07/18/2022 15:00 574.02 0.00 -- 76.3 100.0
07/18/2022 14:00 574.01 0.00 -- 77.8 100.0
07/18/2022 13:00 574.02 0.00 -- 79.2 100.0
07/18/2022 12:00 573.98 0.00 -- 78.9 100.0
07/18/2022 11:00 574.00 0.00 -- 77.5 100.0
07/18/2022 10:00 574.00 0.00 -- 74.1 100.0
07/18/2022 09:00 573.99 0.00 -- 71.9 100.0
07/18/2022 08:00 574.00 0.00 -- 68.1 100.0
07/18/2022 07:00 573.99 0.00 -- 66.1 100.0
07/18/2022 06:00 573.99 0.00 -- 67.0 100.0
07/18/2022 05:00 573.99 0.00 -- 67.5 100.0
07/18/2022 04:00 574.00 0.00 -- 69.5 100.0
07/18/2022 03:00 573.99 0.00 -- 70.0 100.0
07/18/2022 02:00 573.99 0.00 -- 70.0 100.0
07/18/2022 01:00 573.99 0.00 -- 71.0 100.0
07/18/2022 00:00 574.00 0.00 0.49 73.1 100.0
07/17/2022 23:00 573.99 0.00 -- 73.3 100.0
07/17/2022 22:00 573.99 0.00 -- 74.4 100.0
07/17/2022 21:00 573.99 0.00 -- 76.6 100.0
07/17/2022 20:00 573.99 0.00 -- 79.6 100.0
07/17/2022 19:00 573.99 0.00 -- 80.2 100.0
07/17/2022 18:00 573.99 0.00 -- 79.9 100.0
07/17/2022 17:00 574.02 0.00 -- 82.3 100.0
07/17/2022 16:00 574.00 0.00 -- 84.7 100.0
07/17/2022 15:00 573.99 0.00 -- 85.3 100.0
07/17/2022 14:00 574.00 0.00 -- 84.1 100.0
07/17/2022 13:00 574.00 0.00 -- 82.1 100.0
07/17/2022 12:00 574.00 0.00 -- 80.0 100.0
07/17/2022 11:00 573.98 0.00 -- 77.1 100.0
07/17/2022 10:00 573.99 0.00 -- 73.7 100.0
07/17/2022 09:00 573.99 0.00 -- 71.1 100.0
07/17/2022 08:00 573.99 0.00 -- 65.0 100.0
07/17/2022 07:00 573.98 0.00 -- 63.3 100.0
07/17/2022 06:00 573.98 0.00 -- 63.8 100.0
07/17/2022 05:00 573.99 0.00 -- 64.3 100.0
07/17/2022 04:00 573.99 0.00 -- 66.9 100.0
07/17/2022 03:00 573.99 0.00 -- 69.1 100.0
07/17/2022 02:00 573.98 0.00 -- 69.0 100.0
07/17/2022 01:00 573.99 0.00 -- 70.8 100.0
07/17/2022 00:00 573.99 0.00 0.00 72.2 100.0
07/16/2022 23:00 573.99 0.00 -- 71.6 100.0
07/16/2022 22:00 573.99 0.00 -- 71.8 100.0
07/16/2022 21:00 573.99 0.00 -- 75.1 100.0
07/16/2022 20:00 573.99 0.00 -- 77.6 100.0
07/16/2022 19:00 573.99 0.00 -- 78.7 100.0
07/16/2022 18:00 573.99 0.00 -- 80.3 100.0
07/16/2022 17:00 573.99 0.00 -- 81.5 100.0
07/16/2022 16:00 574.00 0.00 -- 80.1 100.0
07/16/2022 15:00 573.99 0.00 -- 80.7 100.0
07/16/2022 14:00 574.01 0.00 -- 79.9 100.0
07/16/2022 13:00 574.00 0.00 -- 77.8 100.0
07/16/2022 12:00 574.00 0.00 -- 74.9 100.0
07/16/2022 11:00 574.01 0.00 -- 71.2 100.0
07/16/2022 10:00 574.00 0.00 -- 68.6 100.0
07/16/2022 09:00 574.00 0.00 -- 66.7 100.0
07/16/2022 08:00 574.00 0.00 -- 60.9 100.0
07/16/2022 07:00 574.00 0.00 -- 58.5 100.0
07/16/2022 06:00 574.00 0.00 -- 59.3 100.0
07/16/2022 05:00 574.01 0.00 -- 59.2 100.0
07/16/2022 04:00 574.00 0.00 -- 59.1 100.0
07/16/2022 03:00 574.01 0.00 -- 59.2 100.0
07/16/2022 02:00 574.01 0.00 -- 59.7 100.0
07/16/2022 01:00 574.00 0.00 -- 60.9 100.0
07/16/2022 00:00 574.00 0.00 0.00 62.0 100.0
07/15/2022 23:00 574.00 0.00 -- 64.6 100.0
07/15/2022 22:00 574.01 0.00 -- 68.5 100.0
07/15/2022 21:00 574.01 0.00 -- 71.7 100.0
07/15/2022 20:00 574.02 0.00 -- 78.0 100.0
07/15/2022 19:00 574.02 0.00 -- 79.2 100.0
07/15/2022 18:00 574.00 0.00 -- 80.2 100.0
07/15/2022 17:00 574.01 0.00 -- 80.0 100.0
07/15/2022 16:00 574.00 0.00 -- 78.9 100.0
07/15/2022 15:00 574.01 0.00 -- 77.6 100.0
07/15/2022 14:00 574.02 0.00 -- 76.1 100.0
07/15/2022 13:00 574.02 0.00 -- 75.5 100.0
07/15/2022 12:00 574.02 0.00 -- 74.3 100.0
07/15/2022 11:00 574.02 0.00 -- 71.2 100.0
07/15/2022 10:00 574.03 0.00 -- 68.0 100.0
07/15/2022 09:00 574.02 0.00 -- 64.3 100.0
07/15/2022 08:00 574.02 0.00 -- 62.5 100.0
07/15/2022 07:00 574.02 0.00 -- 60.7 100.0
07/15/2022 06:00 574.03 0.00 -- 60.0 100.0
07/15/2022 05:00 574.03 0.00 -- 61.4 100.0
07/15/2022 04:00 574.01 0.00 -- 59.8 100.0
07/15/2022 03:00 574.03 0.00 -- 59.5 100.0
07/15/2022 02:00 574.01 0.00 -- 60.9 100.0
07/15/2022 01:00 574.02 0.00 -- 62.5 100.0
07/15/2022 00:00 574.02 0.00 0.00 63.0 100.0
07/14/2022 23:00 574.02 0.00 -- 64.2 100.0
07/14/2022 22:00 574.01 0.00 -- 66.3 100.0
07/14/2022 21:00 574.03 0.00 -- 70.0 100.0
07/14/2022 20:00 574.04 0.00 -- 74.4 100.0
07/14/2022 19:00 574.03 0.00 -- 73.7 100.0
07/14/2022 18:00 574.03 0.00 -- 74.1 100.0
07/14/2022 17:00 574.02 0.07 -- 69.2 100.0
07/14/2022 16:00 574.00 0.00 -- 69.2 100.0
07/14/2022 15:00 574.01 0.00 -- 77.4 100.0
07/14/2022 14:00 574.01 0.00 -- 76.1 100.0
07/14/2022 13:00 574.01 0.00 -- 76.8 100.0
07/14/2022 12:00 574.02 0.00 -- 75.0 100.0
07/14/2022 11:00 574.02 0.00 -- 71.3 100.0
07/14/2022 10:00 574.02 0.00 -- 67.7 100.0
07/14/2022 09:00 574.02 0.00 -- 65.9 100.0
07/14/2022 08:00 574.02 0.00 -- 63.6 100.0
07/14/2022 07:00 574.02 0.00 -- 61.4 100.0
07/14/2022 06:00 574.03 0.00 -- 62.9 100.0
07/14/2022 05:00 574.02 0.00 -- 63.0 100.0
07/14/2022 04:00 574.03 0.01 -- 62.8 100.0
07/14/2022 03:00 574.02 0.00 -- 64.9 100.0
07/14/2022 02:00 574.02 0.00 -- 64.3 100.0
07/14/2022 01:00 574.01 0.00 -- 63.8 100.0
07/14/2022 00:00 574.02 0.00 0.08 63.8 100.0
07/13/2022 23:00 574.02 0.00 -- 66.0 100.0
07/13/2022 22:00 574.02 0.00 -- 68.3 100.0
07/13/2022 21:00 574.02 0.00 -- 71.8 100.0
07/13/2022 20:00 574.02 0.00 -- 76.9 100.0
07/13/2022 19:00 574.00 0.00 -- 80.0 100.0
07/13/2022 18:00 574.03 0.00 -- 81.6 100.0
07/13/2022 17:00 574.04 0.00 -- 81.1 100.0
07/13/2022 16:00 574.02 0.00 -- 80.2 100.0
07/13/2022 15:00 574.03 0.00 -- 79.3 100.0
07/13/2022 14:00 574.03 0.00 -- 77.1 100.0
07/13/2022 13:00 574.03 0.00 -- 75.7 100.0
07/13/2022 12:00 574.03 0.00 -- 73.8 100.0
07/13/2022 11:00 574.03 0.00 -- 72.0 100.0
07/13/2022 10:00 574.03 0.00 -- 69.9 100.0
07/13/2022 09:00 574.03 0.00 -- 67.6 100.0
07/13/2022 08:00 574.03 0.00 -- 65.6 100.0
07/13/2022 07:00 574.04 0.00 -- 64.7 100.0
07/13/2022 06:00 574.04 0.00 -- 64.3 100.0
07/13/2022 05:00 574.03 0.00 -- 65.2 100.0
07/13/2022 04:00 574.04 0.00 -- 65.9 100.0
07/13/2022 03:00 574.04 0.00 -- 66.8 100.0
07/13/2022 02:00 574.02 0.00 -- 67.3 100.0
07/13/2022 01:00 574.02 0.00 -- 67.6 100.0
07/13/2022 00:00 574.01 0.00 0.00 67.3 100.0
07/12/2022 23:00 574.04 0.01 -- 67.6 100.0
07/12/2022 22:00 574.06 0.00 -- 67.6 100.0
07/12/2022 21:00 574.03 0.00 -- 67.7 100.0
07/12/2022 20:00 574.04 0.01 -- 66.9 100.0
07/12/2022 19:00 574.06 0.33 -- 66.4 100.0
07/12/2022 18:00 574.01 0.00 -- 84.0 100.0
07/12/2022 17:00 574.00 0.00 -- 87.1 100.0
07/12/2022 16:00 573.98 0.00 -- 85.4 100.0
07/12/2022 15:00 573.96 0.00 -- 82.1 100.0
07/12/2022 14:00 574.01 0.00 -- 80.4 100.0
07/12/2022 13:00 574.00 0.00 -- 78.0 100.0
07/12/2022 12:00 574.01 0.00 -- 78.3 100.0
07/12/2022 11:00 573.99 0.00 -- 73.8 100.0
07/12/2022 10:00 574.04 0.00 -- 70.9 100.0
07/12/2022 09:00 574.02 0.00 -- 68.9 100.0
07/12/2022 08:00 574.00 0.00 -- 67.3 100.0
07/12/2022 07:00 573.98 0.00 -- 65.9 100.0
07/12/2022 06:00 574.01 0.00 -- 66.8 100.0
07/12/2022 05:00 573.99 0.00 -- 67.9 100.0
07/12/2022 04:00 574.00 0.00 -- 67.5 100.0
07/12/2022 03:00 574.02 0.00 -- 68.1 100.0
07/12/2022 02:00 574.00 0.00 -- 69.6 100.0
07/12/2022 01:00 574.01 0.00 -- 69.6 100.0
07/12/2022 00:00 574.02 0.00 0.35 69.8 100.0
07/11/2022 23:00 574.01 0.00 -- 71.3 100.0
07/11/2022 22:00 574.01 0.00 -- 71.9 100.0
07/11/2022 21:00 574.02 0.00 -- 76.7 100.0
07/11/2022 20:00 574.00 0.00 -- 80.2 100.0
07/11/2022 19:00 574.01 0.00 -- 81.4 100.0
07/11/2022 18:00 574.00 0.00 -- 83.9 100.0
07/11/2022 17:00 574.03 0.00 -- 83.6 100.0
07/11/2022 16:00 574.03 0.00 -- 82.5 100.0
07/11/2022 15:00 574.01 0.00 -- 80.0 100.0
07/11/2022 14:00 574.01 0.00 -- 79.1 100.0
07/11/2022 13:00 574.04 0.00 -- 77.1 100.0
07/11/2022 12:00 574.03 0.00 -- 75.2 100.0
07/11/2022 11:00 574.02 0.00 -- 71.8 100.0
07/11/2022 10:00 574.02 0.00 -- 67.6 100.0
07/11/2022 09:00 574.03 0.00 -- 62.3 100.0
07/11/2022 08:00 574.03 0.00 -- 57.9 100.0
07/11/2022 07:00 574.03 0.00 -- 55.3 100.0
07/11/2022 06:00 574.01 0.00 -- 56.1 100.0
07/11/2022 05:00 574.02 0.00 -- 57.4 100.0
07/11/2022 04:00 574.02 0.00 -- 58.2 100.0
07/11/2022 03:00 574.03 0.00 -- 60.7 100.0
07/11/2022 02:00 574.04 0.00 -- 61.7 100.0
07/11/2022 01:00 574.03 0.00 -- 62.1 100.0
07/11/2022 00:00 574.03 0.00 0.00 62.5 100.0
07/10/2022 23:00 574.03 0.00 -- 64.6 100.0
07/10/2022 22:00 574.02 0.00 -- 66.2 100.0
07/10/2022 21:00 574.02 0.00 -- 68.7 100.0
07/10/2022 20:00 574.01 0.00 -- 73.4 100.0
07/10/2022 19:00 574.02 0.00 -- 76.5 100.0
07/10/2022 18:00 574.04 0.00 -- 77.2 100.0
07/10/2022 17:00 574.03 0.01 -- 76.5 100.0
07/10/2022 16:00 574.05 0.00 -- 75.7 100.0
07/10/2022 15:00 574.03 0.00 -- 74.4 100.0
07/10/2022 14:00 574.04 0.00 -- 72.5 100.0
07/10/2022 13:00 574.04 0.00 -- 71.4 100.0
07/10/2022 12:00 574.04 0.00 -- 71.0 100.0
07/10/2022 11:00 574.04 0.00 -- 68.7 100.0
07/10/2022 10:00 574.04 0.00 -- 64.8 100.0
07/10/2022 09:00 574.03 0.00 -- 61.4 100.0
07/10/2022 08:00 574.04 0.00 -- 58.9 100.0
07/10/2022 07:00 574.04 0.00 -- 52.7 100.0
07/10/2022 06:00 574.04 0.00 -- 50.9 100.0
07/10/2022 05:00 574.04 0.00 -- 52.0 100.0
07/10/2022 04:00 574.04 0.00 -- 53.9 100.0
07/10/2022 03:00 574.03 0.00 -- 55.8 100.0
07/10/2022 02:00 574.04 0.00 -- 57.7 100.0
07/10/2022 01:00 574.04 0.00 -- 59.1 100.0
07/10/2022 00:00 574.05 0.00 0.01 60.7 100.0
07/09/2022 23:00 574.04 0.00 -- 62.0 100.0
07/09/2022 22:00 574.04 0.00 -- 65.5 100.0
07/09/2022 21:00 574.05 0.00 -- 71.8 100.0
07/09/2022 20:00 574.05 0.00 -- 74.4 100.0
07/09/2022 19:00 574.04 0.00 -- 75.3 100.0
07/09/2022 18:00 574.05 0.00 -- 76.2 100.0
07/09/2022 17:00 574.05 0.00 -- 76.4 100.0
07/09/2022 16:00 574.05 0.00 -- 75.6 100.0
07/09/2022 15:00 574.05 0.00 -- 73.7 100.0
07/09/2022 14:00 574.06 0.00 -- 72.8 100.0
07/09/2022 13:00 574.06 0.00 -- 71.6 100.0
07/09/2022 12:00 574.05 0.00 -- 70.2 100.0
07/09/2022 11:00 574.07 0.00 -- 68.4 100.0
07/09/2022 10:00 574.06 0.00 -- 66.7 100.0
07/09/2022 09:00 574.05 0.00 -- 64.9 100.0
07/09/2022 08:00 574.05 0.00 -- 62.8 100.0
07/09/2022 07:00 574.06 0.00 -- 60.1 100.0
07/09/2022 06:00 574.06 0.00 -- 59.1 100.0
07/09/2022 05:00 574.05 0.00 -- 60.5 100.0
07/09/2022 04:00 574.06 0.00 -- 62.1 100.0
07/09/2022 03:00 574.05 0.00 -- 62.5 100.0
07/09/2022 02:00 574.06 0.00 -- 63.2 100.0
07/09/2022 01:00 574.06 0.00 -- 65.7 100.0
07/09/2022 00:00 574.07 0.00 0.00 67.8 100.0
07/08/2022 23:00 574.07 0.00 -- 72.4 100.0
07/08/2022 22:00 574.05 0.00 -- 71.9 100.0
07/08/2022 21:00 574.06 0.00 -- 76.5 100.0
07/08/2022 20:00 574.07 0.00 -- 79.7 100.0
07/08/2022 19:00 574.09 0.00 -- 79.9 100.0
07/08/2022 18:00 574.06 0.00 -- 79.9 100.0
07/08/2022 17:00 574.07 0.00 -- 80.2 100.0
07/08/2022 16:00 574.06 0.00 -- 79.4 100.0
07/08/2022 15:00 574.10 0.00 -- 78.5 100.0
07/08/2022 14:00 574.07 0.00 -- 77.7 100.0
07/08/2022 13:00 574.09 0.00 -- 75.9 100.0
07/08/2022 12:00 574.08 0.00 -- 74.1 100.0
07/08/2022 11:00 574.07 0.00 -- 72.2 100.0
07/08/2022 10:00 574.08 0.00 -- 70.2 100.0
07/08/2022 09:00 574.08 0.00 -- 67.1 100.0
07/08/2022 08:00 574.07 0.00 -- 63.8 100.0
07/08/2022 07:00 574.07 0.00 -- 63.5 100.0
07/08/2022 06:00 574.07 0.00 -- 63.9 100.0
07/08/2022 05:00 574.08 0.00 -- 63.9 100.0
07/08/2022 04:00 574.08 0.00 -- 64.2 100.0
07/08/2022 03:00 574.08 0.00 -- 65.6 100.0
07/08/2022 02:00 574.08 0.00 -- 65.1 100.0
07/08/2022 01:00 574.07 0.00 -- 65.9 100.0
07/08/2022 00:00 574.06 0.00 0.00 66.2 100.0
07/07/2022 23:00 574.07 0.00 -- 66.6 100.0
07/07/2022 22:00 574.07 0.00 -- 68.1 100.0
07/07/2022 21:00 574.07 0.00 -- 70.5 100.0
07/07/2022 20:00 574.08 0.00 -- 73.2 100.0
07/07/2022 19:00 574.08 0.00 -- 74.9 100.0
07/07/2022 18:00 574.08 0.00 -- 78.1 100.0
07/07/2022 17:00 574.10 0.00 -- 76.8 100.0
07/07/2022 16:00 574.09 0.00 -- 77.0 100.0
07/07/2022 15:00 574.09 0.00 -- 75.6 100.0
07/07/2022 14:00 574.09 0.00 -- 74.3 100.0
07/07/2022 13:00 574.09 0.00 -- 72.7 100.0
07/07/2022 12:00 574.09 0.00 -- 70.8 100.0
07/07/2022 11:00 574.09 0.00 -- 69.1 100.0
07/07/2022 10:00 574.09 0.00 -- 66.6 100.0
07/07/2022 09:00 574.09 0.00 -- 62.8 100.0
07/07/2022 08:00 574.08 0.00 -- 60.6 100.0
07/07/2022 07:00 574.08 0.00 -- 58.0 100.0
07/07/2022 06:00 574.09 0.00 -- 60.0 100.0
07/07/2022 05:00 574.10 0.00 -- 55.8 100.0
07/07/2022 04:00 574.09 0.00 -- 56.7 100.0
07/07/2022 03:00 574.09 0.00 -- 56.7 100.0
07/07/2022 02:00 574.10 0.00 -- 58.1 100.0
07/07/2022 01:00 574.09 0.00 -- 58.8 100.0
07/07/2022 00:00 574.09 0.00 0.00 60.7 100.0
07/06/2022 23:00 574.09 0.00 -- 61.7 100.0
07/06/2022 22:00 574.09 0.00 -- 65.6 100.0
07/06/2022 21:00 574.09 0.00 -- 69.1 100.0
07/06/2022 20:00 574.09 0.00 -- 72.0 100.0
07/06/2022 19:00 574.09 0.00 -- 72.6 100.0
07/06/2022 18:00 574.10 0.00 -- 76.1 100.0
07/06/2022 17:00 574.09 0.00 -- 74.0 100.0
07/06/2022 16:00 574.09 0.00 -- 74.0 100.0
07/06/2022 15:00 574.09 0.00 -- 73.7 100.0
07/06/2022 14:00 574.12 0.00 -- 72.9 100.0
07/06/2022 13:00 574.10 0.00 -- 72.4 100.0
07/06/2022 12:00 574.10 0.00 -- 73.2 100.0
07/06/2022 11:00 574.07 0.00 -- 71.8 100.0
07/06/2022 10:00 574.12 0.00 -- 70.1 100.0
07/06/2022 09:00 574.12 0.00 -- 68.7 100.0
07/06/2022 08:00 574.10 0.00 -- 67.6 100.0
07/06/2022 07:00 574.09 0.00 -- 65.6 100.0
07/06/2022 06:00 574.11 0.00 -- 65.4 100.0
07/06/2022 05:00 574.14 0.01 -- 65.0 100.0
07/06/2022 04:00 574.09 0.00 -- 64.0 100.0
07/06/2022 03:00 574.09 0.04 -- 63.5 100.0
07/06/2022 02:00 574.09 0.06 -- 63.6 100.0
07/06/2022 01:00 574.10 0.08 -- 63.5 100.0
07/06/2022 00:00 574.07 0.20 0.19 64.3 100.0
07/05/2022 23:00 574.08 0.04 -- 63.6 100.0
07/05/2022 22:00 574.07 0.04 -- 63.6 100.0
07/05/2022 21:00 574.07 0.00 -- 64.8 100.0
07/05/2022 20:00 574.07 0.00 -- 65.0 100.0
07/05/2022 19:00 574.06 0.00 -- 66.1 100.0
07/05/2022 18:00 574.04 0.00 -- 65.5 100.0
07/05/2022 17:00 574.07 0.02 -- 65.0 100.0
07/05/2022 16:00 574.07 0.00 -- 69.2 100.0
07/05/2022 15:00 574.07 0.00 -- 73.7 100.0
07/05/2022 14:00 574.06 0.00 -- 74.9 100.0
07/05/2022 13:00 574.07 0.00 -- 74.1 100.0
07/05/2022 12:00 574.07 0.00 -- 73.8 100.0
07/05/2022 11:00 574.06 0.00 -- 72.4 100.0
07/05/2022 10:00 574.07 0.00 -- 69.7 100.0
07/05/2022 09:00 574.07 0.00 -- 64.9 100.0
07/05/2022 08:00 574.07 0.00 -- 61.8 100.0
07/05/2022 07:00 574.06 0.00 -- 60.6 100.0
07/05/2022 06:00 574.07 0.00 -- 59.4 100.0
07/05/2022 05:00 574.07 0.00 -- 58.9 100.0
07/05/2022 04:00 574.06 0.00 -- 58.9 100.0
07/05/2022 03:00 574.07 0.00 -- 58.5 100.0
07/05/2022 02:00 574.06 0.00 -- 58.9 100.0
07/05/2022 01:00 574.06 0.00 -- 60.8 100.0
07/05/2022 00:00 574.06 0.00 0.30 61.8 100.0
07/04/2022 23:00 574.06 0.00 -- 64.1 100.0
07/04/2022 22:00 574.06 0.00 -- 65.2 100.0
07/04/2022 21:00 574.07 0.00 -- 69.4 100.0
07/04/2022 20:00 574.07 0.00 -- 75.1 100.0
07/04/2022 19:00 574.11 0.00 -- 75.8 100.0
07/04/2022 18:00 574.10 0.00 -- 76.7 100.0
07/04/2022 17:00 574.09 0.00 -- 76.7 100.0
07/04/2022 16:00 574.13 0.00 -- 75.8 100.0
07/04/2022 15:00 574.13 0.00 -- 75.9 100.0
07/04/2022 14:00 574.11 0.00 -- 74.0 100.0
07/04/2022 13:00 574.12 0.00 -- 72.0 100.0
07/04/2022 12:00 574.13 0.00 -- 71.5 100.0
07/04/2022 11:00 574.12 0.00 -- 69.3 100.0
07/04/2022 10:00 574.13 0.00 -- 67.3 100.0
07/04/2022 09:00 574.13 0.00 -- 65.3 100.0
07/04/2022 08:00 574.13 0.00 -- 62.2 100.0
07/04/2022 07:00 574.13 0.00 -- 62.1 100.0
07/04/2022 06:00 574.13 0.00 -- 60.6 100.0
07/04/2022 05:00 574.12 0.00 -- 60.6 100.0
07/04/2022 04:00 574.12 0.00 -- 57.3 100.0
07/04/2022 03:00 574.12 0.00 -- 58.0 100.0
07/04/2022 02:00 574.13 0.00 -- 59.9 100.0
07/04/2022 01:00 574.10 0.00 -- 61.1 100.0
07/04/2022 00:00 574.11 0.00 0.00 63.5 100.0
07/03/2022 23:00 574.14 0.00 -- 65.7 100.0
07/03/2022 22:00 574.13 0.00 -- 67.1 100.0
07/03/2022 21:00 574.13 0.00 -- 73.9 100.0
07/03/2022 20:00 574.13 0.00 -- 76.1 100.0
07/03/2022 19:00 574.13 0.00 -- 77.1 100.0
07/03/2022 18:00 574.13 0.00 -- 78.9 100.0
07/03/2022 17:00 574.17 0.00 -- 79.5 100.0
07/03/2022 16:00 574.14 0.00 -- 79.3 100.0
07/03/2022 15:00 574.10 0.00 -- 78.4 100.0
07/03/2022 14:00 574.14 0.00 -- 77.2 100.0
07/03/2022 13:00 574.14 0.00 -- 75.8 100.0
07/03/2022 12:00 574.14 0.00 -- 73.3 100.0
07/03/2022 11:00 574.16 0.00 -- 70.3 100.0
07/03/2022 10:00 574.16 0.00 -- 68.6 100.0
07/03/2022 09:00 574.15 0.00 -- 66.0 100.0
07/03/2022 08:00 574.14 0.00 -- 63.7 100.0
07/03/2022 07:00 574.14 0.00 -- 62.6 100.0
07/03/2022 06:00 574.14 0.00 -- 63.3 100.0
07/03/2022 05:00 574.14 0.00 -- 63.2 100.0
07/03/2022 04:00 574.16 0.00 -- 64.7 100.0
07/03/2022 03:00 574.15 0.00 -- 67.3 100.0
07/03/2022 02:00 574.15 0.00 -- 62.0 100.0
07/03/2022 01:00 574.14 0.00 -- 62.9 100.0
07/03/2022 00:00 574.15 0.00 0.00 64.8 100.0
07/02/2022 23:00 574.14 0.00 -- 66.5 100.0
07/02/2022 22:00 574.14 0.00 -- 68.2 100.0
07/02/2022 21:00 574.15 0.00 -- 71.8 100.0
07/02/2022 20:00 574.14 0.00 -- 76.4 100.0
07/02/2022 19:00 574.13 0.00 -- 80.7 100.0
07/02/2022 18:00 574.17 0.00 -- 81.7 100.0
07/02/2022 17:00 574.17 0.00 -- 81.3 100.0
07/02/2022 16:00 574.17 0.00 -- 82.4 100.0
07/02/2022 15:00 574.19 0.00 -- 80.0 100.0
07/02/2022 14:00 574.18 0.00 -- 77.7 100.0
07/02/2022 13:00 574.14 0.00 -- 75.3 100.0
07/02/2022 12:00 574.15 0.00 -- 72.8 100.0
07/02/2022 11:00 574.14 0.00 -- 72.2 100.0
07/02/2022 10:00 574.15 0.00 -- 72.0 100.0
07/02/2022 09:00 574.15 0.00 -- 70.7 100.0
07/02/2022 08:00 574.16 0.01 -- 69.7 100.0
07/02/2022 07:00 574.15 0.00 -- 71.3 100.0
07/02/2022 06:00 574.15 0.00 -- 72.0 100.0
07/02/2022 05:00 574.15 0.00 -- 73.6 100.0
07/02/2022 04:00 574.14 0.00 -- 75.9 100.0
07/02/2022 03:00 574.14 0.00 -- 77.3 100.0
07/02/2022 02:00 574.16 0.00 -- 77.3 100.0
07/02/2022 01:00 574.14 0.00 -- 77.4 100.0
07/02/2022 00:00 574.14 0.00 0.01 76.8 100.0
07/01/2022 23:00 574.15 0.00 -- 75.1 100.0
07/01/2022 22:00 574.15 0.00 -- 76.5 100.0
07/01/2022 21:00 574.15 0.00 -- 81.5 100.0
07/01/2022 20:00 574.16 0.00 -- 83.1 100.0
07/01/2022 19:00 574.16 0.00 -- 85.5 100.0
07/01/2022 18:00 574.18 0.00 -- 88.5 100.0
07/01/2022 17:00 574.15 0.00 -- 88.3 100.0
07/01/2022 16:00 574.15 0.00 -- 85.7 100.0
07/01/2022 15:00 574.19 0.00 -- 87.1 100.0
07/01/2022 14:00 574.18 0.00 -- 84.3 100.0
07/01/2022 13:00 574.18 0.00 -- 84.2 100.0
07/01/2022 12:00 574.17 0.00 -- 79.5 100.0
07/01/2022 11:00 574.18 0.00 -- 75.8 100.0
07/01/2022 10:00 574.17 0.00 -- 67.8 100.0
07/01/2022 09:00 574.18 0.00 -- 65.6 100.0
07/01/2022 08:00 574.16 0.00 -- 62.2 100.0
07/01/2022 07:00 574.16 0.00 -- 59.3 100.0
07/01/2022 06:00 574.16 0.00 -- 57.7 100.0
07/01/2022 05:00 574.17 0.00 -- 58.4 100.0
07/01/2022 04:00 574.16 0.00 -- 59.0 100.0
07/01/2022 03:00 574.17 0.00 -- 59.5 100.0
07/01/2022 02:00 574.16 0.00 -- 58.2 100.0
07/01/2022 01:00 574.17 0.00 -- 58.7 100.0
07/01/2022 00:00 574.17 0.00 0.00 60.0 100.0
06/30/2022 23:00 574.17 0.00 -- 61.5 100.0
06/30/2022 22:00 574.17 0.00 -- 64.5 100.0
06/30/2022 21:00 574.16 0.00 -- 67.5 100.0
06/30/2022 20:00 574.18 0.00 -- 73.2 100.0
06/30/2022 19:00 574.17 0.00 -- 73.7 100.0
06/30/2022 18:00 574.18 0.00 -- 74.8 100.0
06/30/2022 17:00 574.19 0.00 -- 74.7 100.0
06/30/2022 16:00 574.18 0.00 -- 73.3 100.0
06/30/2022 15:00 574.17 0.00 -- 73.7 100.0
06/30/2022 14:00 574.19 0.00 -- 72.2 100.0
06/30/2022 13:00 574.17 0.00 -- 71.0 100.0
06/30/2022 12:00 574.19 0.00 -- 69.6 100.0
06/30/2022 11:00 574.20 0.00 -- 68.0 100.0
06/30/2022 10:00 574.18 0.00 -- 66.3 100.0
06/30/2022 09:00 574.21 0.00 -- 63.4 100.0
06/30/2022 08:00 574.20 0.00 -- 61.9 100.0
06/30/2022 07:00 574.20 0.00 -- 59.9 100.0
06/30/2022 06:00 574.19 0.00 -- 60.2 100.0
06/30/2022 05:00 574.19 0.00 -- 60.1 100.0
06/30/2022 04:00 574.20 0.00 -- 59.4 100.0
06/30/2022 03:00 574.20 0.00 -- 61.0 100.0
06/30/2022 02:00 574.20 0.00 -- 61.2 100.0
06/30/2022 01:00 574.20 0.00 -- 62.2 100.0
06/30/2022 00:00 574.18 0.00 0.00 62.7 100.0
06/29/2022 23:00 574.21 0.01 -- 63.0 100.0
06/29/2022 22:00 574.19 0.00 -- 69.3 100.0
06/29/2022 21:00 574.19 0.00 -- 71.1 100.0
06/29/2022 20:00 574.19 0.00 -- 74.0 100.0
06/29/2022 19:00 574.20 0.00 -- 76.9 100.0
06/29/2022 18:00 574.19 0.00 -- 80.1 100.0
06/29/2022 17:00 574.21 0.00 -- 79.3 100.0
06/29/2022 16:00 574.20 0.00 -- 80.4 100.0
06/29/2022 15:00 574.21 0.00 -- 78.9 100.0
06/29/2022 14:00 574.21 0.00 -- 76.9 100.0
06/29/2022 13:00 574.21 0.00 -- 76.9 100.0
06/29/2022 12:00 574.20 0.00 -- 74.9 100.0
06/29/2022 11:00 574.20 0.00 -- 72.6 100.0
06/29/2022 10:00 574.21 0.00 -- 66.1 100.0
06/29/2022 09:00 574.22 0.00 -- 61.9 100.0
06/29/2022 08:00 574.21 0.00 -- 59.3 100.0
06/29/2022 07:00 574.20 0.00 -- 56.3 100.0
06/29/2022 06:00 574.21 0.00 -- 54.7 100.0
06/29/2022 05:00 574.20 0.00 -- 54.9 100.0
06/29/2022 04:00 574.20 0.00 -- 55.4 100.0
06/29/2022 03:00 574.21 0.00 -- 55.1 100.0
06/29/2022 02:00 574.20 0.00 -- 55.4 100.0
06/29/2022 01:00 574.20 0.00 -- 56.7 100.0
06/29/2022 00:00 574.20 0.00 0.01 57.9 100.0
06/28/2022 23:00 574.21 0.00 -- 59.7 100.0
06/28/2022 22:00 574.20 0.00 -- 62.7 100.0
06/28/2022 21:00 574.20 0.00 -- 66.8 100.0
06/28/2022 20:00 574.21 0.00 -- 73.3 100.0
06/28/2022 19:00 574.22 0.00 -- 74.3 100.0
06/28/2022 18:00 574.20 0.00 -- 74.4 100.0
06/28/2022 17:00 574.21 0.00 -- 74.7 100.0
06/28/2022 16:00 574.22 0.00 -- 72.4 100.0
06/28/2022 15:00 574.22 0.00 -- 70.1 100.0
06/28/2022 14:00 574.23 0.00 -- 66.3 100.0
06/28/2022 13:00 574.22 0.00 -- 69.2 100.0
06/28/2022 12:00 574.22 0.00 -- 69.4 100.0
06/28/2022 11:00 574.22 0.00 -- 68.4 100.0
06/28/2022 10:00 574.23 0.00 -- 66.1 100.0
06/28/2022 09:00 574.21 0.00 -- 63.2 100.0
06/28/2022 08:00 574.21 0.00 -- 60.7 100.0
06/28/2022 07:00 574.21 0.00 -- 58.4 100.0
06/28/2022 06:00 574.22 0.00 -- 60.4 100.0
06/28/2022 05:00 574.22 0.00 -- 58.6 100.0
06/28/2022 04:00 574.23 0.00 -- 59.3 100.0
06/28/2022 03:00 574.22 0.00 -- 60.8 100.0
06/28/2022 02:00 574.22 0.00 -- 63.3 100.0
06/28/2022 01:00 574.22 0.00 -- 65.9 100.0
06/28/2022 00:00 574.22 0.00 0.00 68.0 100.0
06/27/2022 23:00 574.22 0.00 -- 67.0 100.0
06/27/2022 22:00 574.22 0.00 -- 68.6 100.0
06/27/2022 21:00 574.23 0.00 -- 73.5 100.0
06/27/2022 20:00 574.25 0.00 -- 74.4 100.0
06/27/2022 19:00 574.22 0.00 -- 76.3 100.0
06/27/2022 18:00 574.21 0.00 -- 77.5 100.0
06/27/2022 17:00 574.22 0.00 -- 75.5 100.0
06/27/2022 16:00 574.23 0.00 -- 75.8 100.0
06/27/2022 15:00 574.21 0.00 -- 72.8 100.0
06/27/2022 14:00 574.24 0.00 -- 72.1 100.0
06/27/2022 13:00 574.24 0.02 -- 70.3 100.0
06/27/2022 12:00 574.23 0.07 -- 68.2 100.0
06/27/2022 11:00 574.22 0.00 -- 68.2 100.0
06/27/2022 10:00 574.21 0.00 -- 69.2 100.0
06/27/2022 09:00 574.21 0.00 -- 70.3 100.0
06/27/2022 08:00 574.21 0.00 -- 68.2 100.0
06/27/2022 07:00 574.20 0.00 -- 66.6 100.0
06/27/2022 06:00 574.21 0.00 -- 67.0 100.0
06/27/2022 05:00 574.22 0.00 -- 68.0 100.0
06/27/2022 04:00 574.21 0.00 -- 70.4 100.0
06/27/2022 03:00 574.21 0.00 -- 69.4 100.0
06/27/2022 02:00 574.21 0.00 -- 70.1 100.0
06/27/2022 01:00 574.21 0.00 -- 71.9 100.0
06/27/2022 00:00 574.22 0.00 0.09 72.5 100.0
06/26/2022 23:00 574.22 0.00 -- 73.9 100.0
06/26/2022 22:00 574.21 0.00 -- 74.5 100.0
06/26/2022 21:00 574.21 0.00 -- 77.2 100.0
06/26/2022 20:00 574.21 0.00 -- 79.9 100.0
06/26/2022 19:00 574.23 0.00 -- 83.4 100.0
06/26/2022 18:00 574.22 0.00 -- 86.8 100.0
06/26/2022 17:00 574.23 0.00 -- 86.2 100.0
06/26/2022 16:00 574.22 0.00 -- 88.8 100.0
06/26/2022 15:00 574.22 0.00 -- 89.0 100.0
06/26/2022 14:00 574.23 0.00 -- 87.1 100.0
06/26/2022 13:00 574.22 0.00 -- 86.4 100.0
06/26/2022 12:00 574.22 0.00 -- 83.8 100.0
06/26/2022 11:00 574.22 0.00 -- 80.8 100.0
06/26/2022 10:00 574.22 0.00 -- 74.6 100.0
06/26/2022 09:00 574.22 0.00 -- 71.2 100.0
06/26/2022 08:00 574.22 0.00 -- 67.0 100.0
06/26/2022 07:00 574.23 0.00 -- 64.9 100.0
06/26/2022 06:00 574.23 0.00 -- 65.0 100.0
06/26/2022 05:00 574.22 0.00 -- 64.4 100.0
06/26/2022 04:00 574.23 0.00 -- 64.5 100.0
06/26/2022 03:00 574.22 0.00 -- 65.3 100.0
06/26/2022 02:00 574.22 0.00 -- 67.2 100.0
06/26/2022 01:00 574.23 0.00 -- 68.9 100.0
06/26/2022 00:00 574.22 0.00 0.00 71.9 100.0
06/25/2022 23:00 574.22 0.00 -- 73.7 100.0
06/25/2022 22:00 574.23 0.00 -- 73.2 100.0
06/25/2022 21:00 574.23 0.00 -- 75.5 100.0
06/25/2022 20:00 574.23 0.00 -- 79.9 100.0
06/25/2022 19:00 574.22 0.00 -- 85.0 100.0
06/25/2022 18:00 574.22 0.00 -- 86.0 100.0
06/25/2022 17:00 574.23 0.00 -- 86.4 100.0
06/25/2022 16:00 574.23 0.00 -- 85.7 100.0
06/25/2022 15:00 574.24 0.00 -- 84.1 100.0
06/25/2022 14:00 574.24 0.00 -- 82.3 100.0
06/25/2022 13:00 574.23 0.00 -- 80.1 100.0
06/25/2022 12:00 574.24 0.00 -- 78.4 100.0
06/25/2022 11:00 574.24 0.00 -- 74.8 100.0
06/25/2022 10:00 574.24 0.00 -- 70.6 100.0
06/25/2022 09:00 574.24 0.00 -- 67.9 100.0
06/25/2022 08:00 574.24 0.00 -- 64.5 100.0
06/25/2022 07:00 574.23 0.00 -- 64.1 100.0
06/25/2022 06:00 574.24 0.00 -- 63.0 100.0
06/25/2022 05:00 574.23 0.00 -- 60.6 100.0
06/25/2022 04:00 574.24 0.00 -- 60.2 100.0
06/25/2022 03:00 574.24 0.00 -- 60.2 100.0
06/25/2022 02:00 574.24 0.00 -- 60.4 100.0
06/25/2022 01:00 574.23 0.00 -- 61.1 100.0
06/25/2022 00:00 574.23 0.00 0.00 62.4 100.0
06/24/2022 23:00 574.23 0.00 -- 64.0 100.0
06/24/2022 22:00 574.23 0.00 -- 67.3 100.0
06/24/2022 21:00 574.24 0.00 -- 70.4 100.0
06/24/2022 20:00 574.24 0.00 -- 73.9 100.0
06/24/2022 19:00 574.24 0.00 -- 76.6 100.0
06/24/2022 18:00 574.23 0.00 -- 78.4 100.0
06/24/2022 17:00 574.24 0.00 -- 76.1 100.0
06/24/2022 16:00 574.23 0.00 -- 74.0 100.0
06/24/2022 15:00 574.24 0.00 -- 73.1 100.0
06/24/2022 14:00 574.24 0.00 -- 71.9 100.0
06/24/2022 13:00 574.25 0.00 -- 71.0 100.0
06/24/2022 12:00 574.25 0.00 -- 69.3 100.0
06/24/2022 11:00 574.24 0.00 -- 66.2 100.0
06/24/2022 10:00 574.24 0.00 -- 64.4 100.0
06/24/2022 09:00 574.24 0.00 -- 60.6 100.0
06/24/2022 08:00 574.24 0.00 -- 57.0 100.0
06/24/2022 07:00 574.24 0.00 -- 55.4 100.0
06/24/2022 06:00 574.25 0.00 -- 56.1 100.0
06/24/2022 05:00 574.23 0.00 -- 57.1 100.0
06/24/2022 04:00 574.25 0.00 -- 57.6 100.0
06/24/2022 03:00 574.25 0.00 -- 58.0 100.0
06/24/2022 02:00 574.24 0.00 -- 58.3 100.0
06/24/2022 01:00 574.25 0.00 -- 59.6 100.0
06/24/2022 00:00 574.24 0.00 0.00 60.0 100.0
06/23/2022 23:00 574.25 0.00 -- 60.6 100.0
06/23/2022 22:00 574.26 0.00 -- 61.5 100.0
06/23/2022 21:00 574.27 0.00 -- 63.8 100.0
06/23/2022 20:00 574.25 0.00 -- 66.3 100.0
06/23/2022 19:00 574.25 0.00 -- 68.2 100.0
06/23/2022 18:00 574.25 0.00 -- 70.8 100.0
06/23/2022 17:00 574.26 0.00 -- 71.0 100.0
06/23/2022 16:00 574.25 0.00 -- 70.9 100.0
06/23/2022 15:00 574.26 0.00 -- 71.6 100.0
06/23/2022 14:00 574.25 0.00 -- 72.4 100.0
06/23/2022 13:00 574.24 0.00 -- 69.0 100.0
06/23/2022 12:00 574.24 0.00 -- 68.0 100.0
06/23/2022 11:00 574.26 0.00 -- 64.1 100.0
06/23/2022 10:00 574.25 0.00 -- 61.4 100.0
06/23/2022 09:00 574.26 0.00 -- 59.7 100.0
06/23/2022 08:00 574.25 0.00 -- 58.2 100.0
06/23/2022 07:00 574.26 0.00 -- 57.1 100.0
06/23/2022 06:00 574.26 0.00 -- 56.7 100.0
06/23/2022 05:00 574.27 0.00 -- 56.9 100.0
06/23/2022 04:00 574.25 0.00 -- 56.9 100.0
06/23/2022 03:00 574.27 0.00 -- 56.6 100.0
06/23/2022 02:00 574.24 0.00 -- 56.7 100.0
06/23/2022 01:00 574.26 0.00 -- 56.6 100.0
06/23/2022 00:00 574.27 0.00 0.00 56.9 100.0
06/22/2022 23:00 574.25 0.00 -- 56.8 100.0
06/22/2022 22:00 574.27 0.00 -- 56.2 100.0
06/22/2022 21:00 574.26 0.00 -- 58.2 100.0
06/22/2022 20:00 574.27 0.00 -- 61.1 100.0
06/22/2022 19:00 574.25 0.00 -- 62.9 100.0
06/22/2022 18:00 574.25 0.00 -- 65.4 100.0
06/22/2022 17:00 574.24 0.00 -- 66.4 100.0
06/22/2022 16:00 574.27 0.00 -- 66.7 100.0
06/22/2022 15:00 574.26 0.00 -- 66.5 100.0
06/22/2022 14:00 574.28 0.00 -- 64.1 100.0
06/22/2022 13:00 574.26 0.00 -- 64.6 100.0
06/22/2022 12:00 574.27 0.00 -- 64.0 100.0
06/22/2022 11:00 574.26 0.00 -- 62.3 100.0
06/22/2022 10:00 574.26 0.00 -- 60.2 100.0
06/22/2022 09:00 574.26 0.00 -- 57.5 100.0
06/22/2022 08:00 574.28 0.00 -- 55.6 100.0
06/22/2022 07:00 574.28 0.00 -- 55.6 100.0
06/22/2022 06:00 574.26 0.00 -- 54.9 100.0
06/22/2022 05:00 574.26 0.00 -- 53.8 100.0
06/22/2022 04:00 574.27 0.00 -- 52.4 100.0
06/22/2022 03:00 574.28 0.00 -- 52.5 100.0
06/22/2022 02:00 574.27 0.00 -- 53.2 100.0
06/22/2022 01:00 574.26 0.00 -- 55.1 100.0
06/22/2022 00:00 574.27 0.00 0.00 55.6 100.0
06/21/2022 23:00 574.29 0.00 -- 56.5 100.0
06/21/2022 22:00 574.29 0.00 -- 58.8 100.0
06/21/2022 21:00 574.27 0.00 -- 62.3 100.0
06/21/2022 20:00 574.28 0.00 -- 65.7 100.0
06/21/2022 19:00 574.27 0.00 -- 68.7 100.0
06/21/2022 18:00 574.28 0.00 -- 71.4 100.0
06/21/2022 17:00 574.28 0.00 -- 72.5 100.0
06/21/2022 16:00 574.27 0.00 -- 73.0 100.0
06/21/2022 15:00 574.28 0.00 -- 72.4 100.0
06/21/2022 14:00 574.27 0.00 -- 71.9 100.0
06/21/2022 13:00 574.28 0.00 -- 70.4 100.0
06/21/2022 12:00 574.29 0.00 -- 69.4 100.0
06/21/2022 11:00 574.29 0.00 -- 66.7 100.0
06/21/2022 10:00 574.29 0.00 -- 61.3 100.0
06/21/2022 09:00 574.28 0.00 -- 57.8 100.0
06/21/2022 08:00 574.28 0.00 -- 52.5 100.0
06/21/2022 07:00 574.28 0.00 -- 49.0 100.0
06/21/2022 06:00 574.28 0.00 -- 47.2 100.0
06/21/2022 05:00 574.29 0.00 -- 48.5 100.0
06/21/2022 04:00 574.29 0.00 -- 51.0 100.0
06/21/2022 03:00 574.29 0.00 -- 51.7 100.0
06/21/2022 02:00 574.28 0.00 -- 52.0 100.0
06/21/2022 01:00 574.28 0.00 -- 53.0 100.0
06/21/2022 00:00 574.28 0.00 0.00 54.7 100.0
06/20/2022 23:00 574.28 0.00 -- 57.7 100.0
06/20/2022 22:00 574.29 0.00 -- 60.8 100.0
06/20/2022 21:00 574.28 0.00 -- 65.3 100.0
06/20/2022 20:00 574.29 0.00 -- 70.0 100.0
06/20/2022 19:00 574.28 0.00 -- 72.8 100.0
06/20/2022 18:00 574.29 0.00 -- 73.8 100.0
06/20/2022 17:00 574.34 0.00 -- 73.1 100.0
06/20/2022 16:00 574.30 0.00 -- 72.5 100.0
06/20/2022 15:00 574.27 0.00 -- 70.9 100.0
06/20/2022 14:00 574.30 0.00 -- 69.3 100.0
06/20/2022 13:00 574.34 0.00 -- 67.3 100.0
06/20/2022 12:00 574.27 0.00 -- 65.9 100.0
06/20/2022 11:00 574.29 0.00 -- 62.4 100.0
06/20/2022 10:00 574.31 0.00 -- 59.1 100.0
06/20/2022 09:00 574.31 0.00 -- 54.6 100.0
06/20/2022 08:00 574.28 0.00 -- 48.8 100.0
06/20/2022 07:00 574.30 0.00 -- 45.7 100.0
06/20/2022 06:00 574.29 0.00 -- 44.6 100.0
06/20/2022 05:00 574.31 0.00 -- 46.2 100.0
06/20/2022 04:00 574.29 0.00 -- 48.0 100.0
06/20/2022 03:00 574.31 0.00 -- 50.7 100.0
06/20/2022 02:00 574.30 0.00 -- 50.8 100.0
06/20/2022 01:00 574.31 0.00 -- 50.6 100.0
06/20/2022 00:00 574.29 0.00 0.00 50.0 100.0
06/19/2022 23:00 574.31 0.00 -- 50.5 100.0
06/19/2022 22:00 574.31 0.00 -- 51.3 100.0
06/19/2022 21:00 574.29 0.00 -- 52.2 100.0
06/19/2022 20:00 574.31 0.00 -- 52.6 100.0
06/19/2022 19:00 574.31 0.01 -- 53.1 100.0
06/19/2022 18:00 574.29 0.00 -- 53.8 100.0
06/19/2022 17:00 574.31 0.00 -- 55.7 100.0
06/19/2022 16:00 574.32 0.00 -- 54.3 100.0
06/19/2022 15:00 574.32 0.00 -- 54.6 100.0
06/19/2022 14:00 574.29 0.00 -- 55.0 100.0
06/19/2022 13:00 574.31 0.00 -- 55.4 100.0
06/19/2022 12:00 574.32 0.00 -- 55.3 100.0
06/19/2022 11:00 574.32 0.00 -- 54.8 100.0
06/19/2022 10:00 574.31 0.00 -- 54.2 100.0
06/19/2022 09:00 574.31 0.00 -- 54.4 100.0
06/19/2022 08:00 574.32 0.00 -- 53.7 100.0
06/19/2022 07:00 574.32 0.00 -- 53.6 100.0
06/19/2022 06:00 574.32 0.00 -- 53.1 100.0
06/19/2022 05:00 574.32 0.00 -- 54.6 100.0
06/19/2022 04:00 574.32 0.00 -- 54.0 100.0
06/19/2022 03:00 574.32 0.00 -- 54.2 100.0
06/19/2022 02:00 574.34 0.00 -- 54.2 100.0
06/19/2022 01:00 574.34 0.00 -- 54.1 100.0
06/19/2022 00:00 574.32 0.00 0.01 55.0 100.0
06/18/2022 23:00 574.30 0.00 -- 55.6 100.0
06/18/2022 22:00 -- -- -- 55.1 100.0
06/18/2022 21:00 -- -- -- 55.3 100.0
06/18/2022 20:00 -- -- -- 55.8 100.0
06/18/2022 19:00 -- -- -- 57.4 100.0
06/18/2022 18:00 -- -- -- 59.4 100.0
06/18/2022 17:00 -- -- -- 59.2 100.0
06/18/2022 16:00 -- -- -- 58.3 100.0
06/18/2022 15:00 -- -- -- 58.6 100.0
06/18/2022 14:00 -- -- -- 57.9 100.0
06/18/2022 13:00 -- -- -- 57.5 100.0
06/18/2022 12:00 -- -- -- 57.3 100.0
06/18/2022 11:00 -- -- -- 57.6 100.0
06/18/2022 10:00 -- -- -- 56.9 100.0
06/18/2022 09:00 -- -- -- 56.5 100.0
06/18/2022 08:00 -- -- -- 55.8 100.0
06/18/2022 07:00 -- -- -- 58.2 100.0
06/18/2022 06:00 -- -- -- 61.4 100.0
06/18/2022 05:00 -- -- -- 63.7 100.0
06/18/2022 04:00 -- -- -- 64.0 100.0
06/18/2022 03:00 -- -- -- 60.5 100.0
06/18/2022 02:00 -- -- -- 63.3 100.0
06/18/2022 01:00 -- -- -- 68.9 100.0
06/18/2022 00:00 -- -- 0.00 65.8 100.0